Skip Navigation Links weather.gov 
NOAA logo-Select to go to the NOAA homepage NDBC Title GraphicClick to go to NDBC home page   Select to go to the NWS homepage
Home About Us Contact Us
 
 
    
    Station List

 Data Access
    Mobile Access
    Classic Maps
         Recent
         DART®
    Obs Search
    Ship Obs Report
    BuoyCAMs
    TAO
    DODS
    OceanSITES
    HF Radar
    OSMC
    Dial-A-Buoy
    RSS Feeds Image indicating link to RSS feed access page
    Web Widget
    Email Access
    Web Data Guide
    Maintenance Schedule
    Station Status Report

 Program Info
    TAO
    DART®
    IOOS®

 Publications
    NDBC PEA
    NDBC FONSI
    NDBC DQC Handbook

 FAQ
 Visitor Information
 
USA.gov is the U.S. government's official web portal to all federal, state and local government web resources and services.

Station MLSC1 - Moss Landing, South Harbor, CA Image indicating link to RSS feed of recent meteorological observations for station MLSC1

Station operated by Moss Landing Marine Laboratory
Coastal Marine Station
36.802 N 121.791 W (36°48'9" N 121°47'29" W)

Site elevation: 3.05 m above mean sea level
Anemometer height: 10.4 m above site elevation

Search And Rescue (SAR) Data

Meteorological Observations from Nearby Stations and Ships Image indicating link to RSS feed of recent meteorological observations near station MLSC1

Regional HF Radar Surface Current Observations

Station MLSC1
Large icon indicates selected station.
yellow diamond Stations with recent data
red diamond Stations with no data in last 8 hours
     (24 hours for tsunami stations)


Conditions at MLSC1 as of
(8:04 pm PST on 02/21/2019)
0404 GMT on 02/22/2019:
     

Click on the graph icon in the table below to see a time series plot of the last five days of that observation.

5-day plot - Wind Direction Wind Direction (WDIR): NNW ( 340 deg true )
5-day plot - Wind Speed Wind Speed (WSPD): 4.1 kts
5-day plot - Wind Gust Wind Gust (GST): 13.0 kts
5-day plot - Atmospheric Pressure Atmospheric Pressure (PRES): 29.83 in
5-day plot - Air Temperature Air Temperature (ATMP): 51.6 °F
5-day plot - Salinity Salinity (SAL): 32.39 psu
5-day plot - Dew Point Dew Point (DEWP): 26.1 °F
5-day plot - Wind Chill Wind Chill (CHILL): 50.4 °F
5-day plot - Wind Speed at 10 Meters Wind Speed at 10 meters (WSPD10M): 3.9 kts
5-day plot - Wind Speed at 10 Meters Wind Speed at 20 meters (WSPD20M): 3.9 kts
5-day plot - Wind Speed, Wind Gust and Atmospheric Pressure Combined plot of Wind Speed, Gust, and Air Pressure
Previous observations
5-day plot - Wind Direction 5-day plot - Wind Speed 5-day plot - Wind Gust 5-day plot - Wave Height 5-day plot - Dominant Wave Period 5-day plot - Average Period 5-day plot - Mean Wave Direction 5-day plot - Atmospheric Pressure 5-day plot - Pressure Tendency 5-day plot - Air Temperature 5-day plot - Water Temperature 5-day plot - Dew Point 5-day plot - Salinity 5-day plot - Visibility 5-day plot - Tide (above MLLW)
MM DD TIME
(PST)
WDIR WSPD
kts
GST
kts
WVHT
ft
DPD
sec
APD
sec
MWD PRES
in
PTDY
in
ATMP
°F
WTMP
°F
DEWP
°F
SAL
psu
VIS
nmi
TIDE
ft
0221 8:03 pmNNW 5.1 15.9----29.83- 51.6- 27.0---
0221 8:02 pmNNW 6.0 18.1----29.83- 51.6- 28.2---
0221 8:01 pmNNW 6.0 18.1----29.83- 51.6- 28.4---
0221 8:00 pm N 4.1 14.0----29.83- 51.6- 27.5---
0221 7:59 pm N 6.0 17.1----29.83- 51.6- 27.7---
0221 7:58 pmNNW 6.0 17.1----29.83- 51.6- 28.4---
0221 7:57 pmNNW 6.0 18.1----29.83- 51.6- 28.0---
0221 7:56 pmNNW 5.1 15.0----29.83- 51.6- 27.3---
0221 7:55 pmNNW 5.1 17.1----29.83- 51.6- 27.5---
0221 7:54 pmNNW 6.0 19.0----29.83- 51.8- 28.0---
0221 7:53 pm N 5.1 18.1----29.83- 51.8- 29.1---
0221 7:52 pmNNW 6.0 19.0----29.83- 51.6- 28.2---
0221 7:51 pm N 4.1 14.0----29.83- 51.6- 28.2---
0221 7:50 pm N 4.1 15.0----29.83- 52.0- 28.9---
0221 7:49 pm N 5.1 18.1----29.83- 52.0- 28.2---
0221 7:48 pmNNW 7.0 20.0----29.83+0.07 51.8- 28.0---
0221 7:47 pmNNW 7.0 21.0----29.83- 51.8- 27.5---
0221 7:46 pmNNW 6.0 19.0----29.83- 51.8- 27.0---
0221 7:45 pm N 5.1 17.1----29.83- 51.8- 26.1---
0221 7:44 pm N 6.0 22.0----29.83- 52.0- 26.1---
0221 7:43 pm N 7.0 21.0----29.83- 52.2- 26.1---
0221 7:42 pm N 7.0 22.9----29.82- 52.2- 26.4---
0221 7:41 pm N 7.0 24.1----29.82- 52.2- 25.7---
0221 7:40 pm N 6.0 24.1----29.82- 52.3- 25.3---
0221 7:39 pm N 7.0 22.9----29.82- 52.3- 23.4---
0221 7:38 pm N 9.9 28.9----29.82- 52.3- 22.8---
0221 7:37 pm N 8.0 28.0----29.82- 52.3- 23.2---
0221 7:36 pm N 7.0 27.0----29.82- 52.5- 21.9---
0221 7:35 pm N 8.9 31.1----29.82- 52.5- 21.2---
0221 7:34 pm N 7.0 29.9----29.82- 52.5- 21.7---
0221 7:33 pmNNE 8.0 33.0----29.82- 52.3- 23.5---
0221 7:32 pm N 9.9 35.9----29.82- 52.2- 24.4---
0221 7:31 pm N 8.9 31.1----29.82- 52.2- 24.6---
0221 7:30 pm N 6.0 22.9----29.82- 52.3- 23.4---
0221 7:29 pm N 6.0 22.0----29.82- 52.5- 23.2---
0221 7:28 pm N 11.1 36.9----29.81- 52.3- 22.6---
0221 7:27 pmNNE 8.9 38.1----29.81- 52.3- 24.3---
0221 7:26 pm N 11.1 46.0----29.81- 52.3- 23.5---
0221 7:25 pm N 9.9 33.0----29.81- 52.3- 22.3---
0221 7:24 pmNNE 8.9 33.0----29.81- 52.3- 22.6---
0221 7:23 pm N 8.0 26.0----29.81- 52.2- 22.6---
0221 7:22 pmNNE 8.9 31.1----29.81- 52.2- 22.8---
0221 7:21 pmNNE 7.0 27.0----29.81- 52.0- 23.0---
0221 7:20 pm N 7.0 28.0----29.81- 52.2- 23.5---
0221 7:19 pmNNE 6.0 22.0----29.81- 52.3- 24.8---
0221 7:18 pm N 8.0 32.1----29.81- 52.2- 25.3---
0221 7:17 pm N 7.0 31.1----29.81- 52.2- 25.0---
0221 7:16 pm N 4.1 15.9----29.81- 52.2- 23.5---
0221 7:15 pm N 7.0 22.9----29.81- 52.2- 23.9---
0221 7:14 pm N 7.0 27.0----29.81- 52.3- 23.0 32.85--
0221 7:13 pm N 8.0 28.0----29.81- 52.3- 24.1---
0221 7:12 pm N 9.9 33.0----29.81- 52.2- 24.3---
0221 7:11 pm N 6.0 28.0----29.81- 52.2- 26.1---
0221 7:10 pm N 4.1 14.0----29.81- 52.3- 25.2---
0221 7:09 pm N 4.1 15.0----29.81- 52.3- 25.5---
0221 7:08 pmNNW 7.0 21.0----29.81- 52.3- 25.0---
0221 7:07 pm N 6.0 24.1----29.81- 52.2- 24.8---
0221 7:06 pmNNE 5.1 32.1----29.81- 52.3- 27.0---
0221 7:05 pm N 4.1 15.0----29.81- 52.5- 27.3---
0221 7:04 pmNNW 6.0 18.1----29.81- 52.5- 26.6---
0221 7:03 pmNNW 8.0 21.0----29.81- 52.5- 26.2---
0221 7:02 pm N 7.0 26.0----29.81- 52.5- 24.3---
0221 7:01 pm N 8.9 28.0----29.81- 52.7- 24.6---
0221 7:00 pm N 7.0 26.0----29.81- 52.3- 25.3---
0221 6:59 pm N 8.0 28.0----29.81- 52.0- 28.2---
0221 6:58 pm N 5.1 14.0----29.81- 52.0- 29.3---
0221 6:57 pm N 4.1 15.9----29.81- 52.0- 28.6---
0221 6:56 pm N 5.1 19.0----29.81- 52.0- 27.7---
0221 6:55 pm N 5.1 15.0----29.81- 52.2- 28.2---
0221 6:54 pm N 4.1 15.0----29.81- 52.2- 27.9---
0221 6:53 pm N 5.1 21.0----29.80- 52.2- 27.5---
0221 6:52 pmNNE 4.1 17.1----29.80- 52.3- 27.5---
0221 6:51 pm N 6.0 20.0----29.80- 52.2- 27.3---
0221 6:50 pm N 5.1 19.0----29.80- 52.0- 25.9---
0221 6:49 pm N 6.0 22.0----29.80- 51.8- 27.5---
0221 6:48 pm N 4.1 14.0----29.80+0.06 52.0- 26.1---
0221 6:47 pm N 7.0 24.1----29.80- 52.0- 25.7---
0221 6:46 pm N 5.1 20.0----29.80- 52.3- 27.3---
0221 6:45 pm N 6.0 21.0----29.80- 52.3- 29.7---
0221 6:44 pm N 4.1 14.0----29.80- 52.2- 27.7---
0221 6:43 pm N 6.0 19.0----29.80- 52.2- 28.6---
0221 6:42 pmNNW 6.0 21.0----29.80- 52.2- 27.0---
0221 6:41 pm N 5.1 18.1----29.80- 52.3- 26.4---
0221 6:40 pm N 7.0 22.9----29.80- 52.3- 27.1---
0221 6:39 pm N 6.0 19.0----29.80- 52.3- 27.1---
0221 6:38 pm N 4.1 15.9----29.80- 52.5- 26.8---
0221 6:37 pm N 5.1 15.0----29.80- 52.7- 27.9---
0221 6:36 pm N 6.0 22.0----29.80- 52.9- 28.0---
0221 6:35 pm N 8.0 28.9----29.80- 53.1- 29.7---
0221 6:34 pm N 5.1 17.1----29.80- 53.1- 26.8---
0221 6:33 pmNNW 5.1 17.1----29.79- 52.7- 26.2---
0221 6:32 pmNNW 7.0 22.9----29.79- 52.7- 26.6---
0221 6:31 pm N 6.0 25.1----29.79- 52.7- 26.1---
0221 6:30 pm N 7.0 22.9----29.79- 52.7- 24.8---
0221 6:29 pm N 7.0 22.9----29.79- 52.5- 25.2---
0221 6:28 pm N 7.0 25.1----29.79- 52.7- 25.3---
0221 6:27 pm N 6.0 18.1----29.79- 52.7- 24.4---
0221 6:26 pm N 7.0 24.1----29.79- 52.9- 24.3---
0221 6:25 pm N 7.0 27.0----29.79- 52.9- 24.3---
0221 6:24 pm N 8.9 28.9----29.79- 52.9- 23.2---
0221 6:23 pm N 8.9 28.0----29.79- 52.9- 24.1---
0221 6:22 pm N 8.0 29.9----29.79- 52.9- 24.3---
0221 6:21 pm N 8.9 28.9----29.79- 52.7- 24.3---
0221 6:20 pm N 8.9 32.1----29.79- 52.5- 25.0---
0221 6:19 pm N 5.1 24.1----29.79- 52.9- 25.0---
0221 6:18 pm N 7.0 22.0----29.79- 52.9- 25.2---
0221 6:17 pm N 7.0 24.1----29.79- 53.1- 25.2---
0221 6:16 pm N 6.0 21.0----29.79- 53.1- 26.4---
0221 6:15 pm N 8.9 28.9----29.79- 53.4- 26.4---
0221 6:14 pm N 7.0 25.1----29.79- 53.6- 27.0 33.36--
0221 6:13 pm N 8.0 26.0----29.78- 53.6- 26.4---
0221 6:12 pm N 5.1 20.0----29.78- 53.6- 25.3---
0221 6:11 pm N 7.0 28.9----29.78- 53.6- 26.1---
0221 6:10 pmNNW 9.9 33.0----29.78- 53.2- 24.4---
0221 6:09 pmNNW 7.0 21.0----29.78- 53.1- 27.0---
0221 6:08 pm N 6.0 21.0----29.78- 53.1- 25.5---
0221 6:07 pm N 6.0 22.9----29.78- 53.1- 25.9---
0221 6:06 pm N 7.0 21.0----29.78- 53.1- 26.4---
0221 6:05 pm N 7.0 24.1----29.78- 52.7- 26.6---
0221 6:04 pm N 6.0 22.0----29.78- 52.7- 27.3---
0221 6:03 pm N 5.1 17.1----29.78- 52.7- 26.6---
0221 6:02 pm N 6.0 21.0----29.78- 52.7- 27.7---
0221 6:01 pm N 5.1 21.0----29.78- 52.7- 27.9---
0221 6:00 pm N 4.1 11.1----29.78- 52.9- 26.2---
0221 5:59 pm N 4.1 14.0----29.78- 53.2- 27.1---
0221 5:58 pm N 5.1 15.9----29.78- 53.4- 27.3---
0221 5:57 pmNNE 4.1 14.0----29.78- 53.4- 28.2---
0221 5:56 pmNNW 6.0 19.0----29.78- 53.4- 27.3---
0221 5:55 pm N 6.0 18.1----29.78- 53.4- 28.0---
0221 5:54 pm N 5.1 21.0----29.78- 53.4- 28.9---
0221 5:53 pm N 6.0 19.0----29.78- 53.4- 28.4---
0221 5:52 pm N 6.0 22.0----29.78- 53.4- 25.7---
0221 5:51 pm N 6.0 17.1----29.78- 53.4- 25.2---
0221 5:50 pm N 6.0 22.0----29.78- 53.6- 27.9---
0221 5:49 pm N 6.0 22.0----29.78- 53.6- 28.8---
0221 5:48 pm N 4.1 14.0----29.78+0.04 53.6- 26.6---
0221 5:47 pm N 4.1 17.1----29.77- 53.6- 25.3---
0221 5:46 pm N 5.1 15.9----29.77- 53.6- 25.0---
0221 5:45 pm N 8.0 22.0----29.77- 53.6- 26.2---
0221 5:44 pm N 6.0 21.0----29.78- 53.6- 26.1---
0221 5:43 pm N 5.1 17.1----29.77- 53.6- 26.2---
0221 5:42 pm N 6.0 22.0----29.77- 53.8- 28.2---
0221 5:41 pmNNW 5.1 15.9----29.77- 53.8- 27.5---
0221 5:40 pm N 2.9 12.0----29.77- 53.8- 26.2---
0221 5:39 pm N 4.1 19.0----29.77- 54.0- 25.9---
0221 5:38 pm N 5.1 17.1----29.77- 54.0- 28.8---
0221 5:37 pm N 5.1 15.0----29.77- 54.0- 28.4---
0221 5:36 pm N 5.1 19.0----29.77- 54.0- 28.2---
0221 5:35 pm N 5.1 19.0----29.77- 54.1- 28.8---
0221 5:34 pm N 7.0 24.1----29.77- 54.1- 28.2---
0221 5:33 pmNNW 8.9 27.0----29.77- 54.1- 27.1---
0221 5:32 pmNNW 9.9 28.9----29.77- 54.1- 27.1---
0221 5:31 pmNNW 9.9 28.0----29.77- 54.3- 28.8---
0221 5:30 pm N 6.0 26.0----29.77- 54.3- 28.0---
0221 5:29 pm N 4.1 15.9----29.77- 54.3- 28.8---
0221 5:28 pm N 5.1 18.1----29.77- 54.3- 27.7---
0221 5:27 pm N 6.0 20.0----29.77- 54.3- 27.9---
0221 5:26 pm N 7.0 22.0----29.77- 54.5- 29.5---
0221 5:25 pmNNW 8.0 25.1----29.77- 54.3- 29.1---
0221 5:24 pmNNW 6.0 21.0----29.76- 54.3- 27.5---
0221 5:23 pm N 6.0 20.0----29.77- 54.5- 27.1---
0221 5:22 pm N 7.0 22.9----29.77- 54.3- 28.0---
0221 5:21 pm N 6.0 26.0----29.77- 54.5- 27.7---
0221 5:20 pmNNW 5.1 21.0----29.76- 54.7- 27.9---
0221 5:19 pm N 5.1 18.1----29.76- 54.7- 28.8---
0221 5:18 pm N 5.1 17.1----29.76- 54.5- 28.4---
0221 5:17 pm N 5.1 19.0----29.76- 54.5- 27.3---
0221 5:16 pm N 6.0 20.0----29.76- 54.7- 28.8---
0221 5:15 pm N 5.1 18.1----29.76- 54.5- 29.1---
0221 5:14 pm N 6.0 22.0----29.76- 54.5- 29.7 33.34--
0221 5:13 pmNNW 7.0 22.9----29.76- 54.5- 27.9---
0221 5:12 pmNNW 8.0 21.0----29.76- 54.9- 29.7---
0221 5:11 pm N 7.0 20.0----29.76- 54.9- 26.4---
0221 5:10 pm N 6.0 19.0----29.76- 54.9- 25.5---
0221 5:09 pm N 5.1 22.0----29.76- 54.9- 25.0---
0221 5:08 pm N 6.0 22.0----29.76- 54.7- 22.8---
0221 5:07 pm N 6.0 25.1----29.76- 54.9- 21.9---
0221 5:06 pmNNE 5.1 22.9----29.76- 54.9- 22.1---
0221 5:05 pmNNE 5.1 22.9----29.76- 54.9- 24.4---
0221 5:04 pm N 8.9 31.1----29.76- 54.9- 23.5---
0221 5:03 pm N 7.0 24.1----29.76- 54.7- 21.9---
0221 5:02 pmNNE 7.0 26.0----29.76- 54.7- 22.6---
0221 5:01 pmNNE 6.0 25.1----29.76- 54.7- 22.8---
0221 5:00 pmNNE 8.0 28.9----29.76- 54.9- 23.2---
0221 4:59 pmNNE 8.0 35.0----29.76- 54.9- 23.4---
0221 4:58 pm N 11.1 35.9----29.75- 54.9- 23.0---
0221 4:57 pm N 9.9 40.0----29.75- 54.9- 23.7---
0221 4:56 pm N 7.0 28.0----29.75- 55.0- 25.2---
0221 4:55 pm N 9.9 29.9----29.75- 55.2- 27.5---
0221 4:54 pm N 7.0 28.9----29.75- 55.4- 29.5---
0221 4:53 pm N 6.0 22.0----29.75- 55.2- 24.8---
0221 4:52 pm N 8.0 22.9----29.75- 55.2- 23.7---
0221 4:51 pm N 7.0 26.0----29.75- 55.2- 23.5---
0221 4:50 pmNNE 6.0 18.1----29.75- 55.2- 24.3---
0221 4:49 pmNNE 5.1 19.0----29.75- 55.2- 24.1---
0221 4:48 pmNNE 6.0 25.1----29.75+0.02 55.4- 24.8---
0221 4:47 pmNNE 6.0 25.1----29.75- 55.4- 24.6---
0221 4:46 pmNNE 6.0 22.0----29.75- 55.4- 26.2---
0221 4:45 pm N 6.0 29.9----29.75- 55.2- 25.7---
0221 4:44 pm N 6.0 20.0----29.75- 55.0- 24.8---
0221 4:43 pm N 6.0 19.0----29.75- 55.0- 26.8---
0221 4:42 pmNNE 6.0 19.0----29.75- 55.0- 31.1---
0221 4:41 pm N 7.0 25.1----29.75- 55.0- 30.6---
0221 4:40 pmNNW 9.9 28.9----29.75- 55.0- 29.8---
0221 4:39 pm N 8.9 27.0----29.75- 55.4- 29.8---
0221 4:38 pm N 7.0 29.9----29.75- 55.4- 29.8---
0221 4:37 pm N 9.9 35.0----29.75- 55.6- 30.7---
0221 4:36 pm N 7.0 26.0----29.75- 55.6- 30.4---
0221 4:35 pm N 6.0 24.1----29.75- 55.6- 28.4---
0221 4:34 pm N 5.1 17.1----29.75- 55.4- 28.2---
0221 4:33 pm N 6.0 22.9----29.75- 55.2- 26.4---
0221 4:32 pm N 8.9 25.1----29.75- 55.6- 27.5---
0221 4:31 pm N 6.0 22.0----29.75- 55.8- 25.0---
0221 4:30 pm N 4.1 15.0----29.75- 55.8- 26.2---
0221 4:29 pmNNE 4.1 14.0----29.75- 55.8- 27.0---
0221 4:28 pm N 5.1 17.1----29.75- 55.9- 29.8---
0221 4:27 pmNNE 4.1 14.0----29.75- 55.8- 30.9---
0221 4:26 pm N 4.1 18.1----29.75- 55.8- 28.9---
0221 4:25 pm N 5.1 17.1----29.75- 55.6- 28.6---
0221 4:24 pm N 5.1 15.9----29.75- 55.4- 30.9---
0221 4:23 pm N 5.1 17.1----29.75- 55.0- 32.9---
0221 4:22 pm N 7.0 29.9----29.75- 54.9- 31.5---
0221 4:21 pmNNW 8.9 33.0----29.75- 55.0- 31.6---
0221 4:20 pm N 8.9 28.9----29.75- 54.9- 28.2---
0221 4:19 pmNNW 8.0 26.0----29.75- 54.9- 27.1---
0221 4:18 pmNNW 8.9 24.1----29.75- 55.0- 28.9---
0221 4:17 pm N 7.0 26.0----29.75- 55.0- 29.1---
0221 4:16 pm N 8.0 26.0----29.75- 55.0- 30.0---
0221 4:15 pm N 6.0 19.0----29.75- 55.0- 31.8---
0221 4:14 pmNNW 6.0 19.0----29.75- 54.9- 29.7 33.37--
0221 4:13 pm N 7.0 22.0----29.75- 54.7- 28.0---
0221 4:12 pm N 9.9 28.0----29.75- 54.9- 29.8---
0221 4:11 pmNNW 9.9 33.0----29.75- 55.0- 31.1---
0221 4:10 pmNNW 6.0 21.0----29.75- 55.2- 27.0---
0221 4:09 pm N 5.1 18.1----29.75- 55.2- 29.1---
0221 4:08 pm N 7.0 27.0----29.75- 55.2- 31.6---
0221 4:07 pm N 6.0 24.1----29.74- 54.9- 31.6---
0221 4:06 pmNNW 6.0 21.0----29.74- 54.9- 30.2---
0221 4:05 pmNNW 7.0 24.1----29.74- 54.9- 28.2---
0221 4:04 pmNNW 7.0 22.9----29.75- 55.0- 28.0---
0221 4:03 pmNNW 9.9 28.9----29.75- 55.4- 30.2---
0221 4:02 pmNNW 8.0 26.0----29.75- 55.2- 26.8---
0221 4:01 pm N 8.0 27.0----29.75- 55.2- 30.0---
0221 4:00 pm N 8.0 28.0----29.75- 55.4- 31.5---
0221 3:59 pm N 7.0 24.1----29.74- 55.0- 29.8---
0221 3:58 pmNNW 8.0 27.0----29.74- 54.9- 29.5---
0221 3:57 pmNNW 8.0 26.0----29.74- 54.9- 30.4---
0221 3:56 pmNNW 9.9 28.0----29.74- 54.9- 30.0---
0221 3:55 pmNNW 11.1 31.1----29.74- 54.9- 29.7---
0221 3:54 pm N 7.0 25.1----29.74- 54.7- 29.1---
0221 3:53 pm N 8.0 24.1----29.74- 54.9- 29.8---
0221 3:52 pm N 8.9 26.0----29.74- 55.0- 31.1---
0221 3:51 pm N 7.0 25.1----29.74- 54.9- 30.7---
0221 3:50 pm N 11.1 32.1----29.74- 55.0- 32.4---
0221 3:49 pmNNW 8.0 24.1----29.74- 55.2- 35.4---
0221 3:48 pmNNW 8.0 26.0----29.74-0.01 55.0- 32.5---
0221 3:47 pmNNW 8.0 24.1----29.74- 55.0- 30.0---
0221 3:46 pmNNW 8.9 26.0----29.74- 55.0- 31.8---
0221 3:45 pmNNW 8.0 26.0----29.74- 55.2- 34.3---
0221 3:44 pmNNW 6.0 21.0----29.74- 54.9- 31.3---
0221 3:43 pmNNW 8.9 28.0----29.74- 55.0- 30.9---
0221 3:42 pmNNW 8.9 29.9----29.74- 55.2- 32.7---
0221 3:41 pmNNW 7.0 25.1----29.74- 55.6- 31.5---
0221 3:40 pmNNW 5.1 15.9----29.74- 55.8- 31.6---
0221 3:39 pmNNW 5.1 18.1----29.74- 55.9- 28.0---
0221 3:38 pm N 5.1 18.1----29.74- 56.3- 29.3---
0221 3:37 pm N 4.1 17.1----29.74- 56.1- 29.1---
0221 3:36 pmNNE 2.9 12.0----29.74- 55.9- 27.1---
0221 3:35 pmNNE 5.1 21.0----29.74- 55.6- 28.6---
0221 3:34 pm N 8.0 25.1----29.74- 55.2- 30.9---
0221 3:33 pm N 8.0 25.1----29.74- 54.9- 28.2---
0221 3:32 pmNNW 7.0 20.0----29.74- 55.0- 28.8---
0221 3:31 pmNNW 8.0 26.0----29.74- 55.4- 30.2---
0221 3:30 pm N 7.0 27.0----29.74- 55.0- 30.7---
0221 3:29 pm N 8.0 24.1----29.73- 55.2- 30.7---
0221 3:28 pm N 8.0 27.0----29.73- 55.2- 32.5---
0221 3:27 pm N 8.0 24.1----29.73- 55.0- 31.3---
0221 3:26 pmNNW 8.0 22.9----29.73- 55.2- 29.8---
0221 3:25 pm N 7.0 21.0----29.73- 55.2- 29.5---
0221 3:24 pm N 8.0 24.1----29.73- 55.2- 29.3---
0221 3:23 pm N 7.0 26.0----29.73- 55.2- 28.6---
0221 3:22 pm N 8.0 25.1----29.73- 55.4- 30.6---
0221 3:21 pm N 7.0 25.1----29.73- 55.8- 29.8---
0221 3:20 pm N 7.0 22.9----29.73- 56.1- 31.5---
0221 3:19 pm N 4.1 18.1----29.73- 55.6- 30.2---
0221 3:18 pm N 5.1 22.0----29.73- 55.2- 28.2---
0221 3:17 pm N 8.0 28.9----29.73- 55.2- 29.3---
0221 3:16 pm N 8.9 31.1----29.73- 55.0- 30.4---
0221 3:15 pm N 8.9 28.0----29.73- 54.9- 30.4---
0221 3:14 pm N 9.9 33.0----29.73- 55.4- 32.0 33.55--
0221 3:13 pm N 8.0 27.0----29.73- 55.6- 31.5---
0221 3:12 pm N 8.0 25.1----29.73- 55.8- 32.0---
0221 3:11 pm N 7.0 27.0----29.73- 55.4- 30.4---
0221 3:10 pm N 8.9 31.1----29.73- 55.6- 30.2---
0221 3:09 pm N 7.0 29.9----29.73- 55.4- 32.4---
0221 3:08 pm N 8.9 28.0----29.73- 55.0- 35.1---
0221 3:07 pm N 7.0 22.0----29.73- 55.0- 33.8---
0221 3:06 pmNNW 8.9 32.1----29.73- 55.4- 33.1---
0221 3:05 pmNNW 7.0 22.9----29.73- 54.9- 31.5---
0221 3:04 pmNNW 6.0 25.1----29.73- 54.5- 30.0---
0221 3:03 pmNNW 8.9 26.0----29.73- 54.7- 30.0---
0221 3:02 pmNNW 8.0 25.1----29.73- 54.3- 29.8---
0221 3:01 pmNNW 9.9 29.9----29.73- 54.1- 34.2---
0221 3:00 pm NW 9.9 27.0----29.73- 54.0- 31.8---
0221 2:59 pm NW 8.9 28.0----29.73- 54.1- 33.8---
0221 2:58 pm NW 8.9 28.0----29.73- 54.0- 32.7---
0221 2:57 pm NW 11.1 32.1----29.73- 54.1- 33.4---
0221 2:56 pm NW 8.9 28.0----29.73- 54.0- 32.5---
0221 2:55 pm NW 9.9 31.1----29.73- 54.3- 34.5---
0221 2:54 pm NW 8.9 27.0----29.73- 54.1- 34.9---
0221 2:53 pm NW 8.9 28.0----29.73- 54.0- 32.4---
0221 2:52 pm NW 12.0 35.0----29.73- 54.1- 34.3---
0221 2:51 pm NW 11.1 33.0----29.73- 54.0- 33.4---
0221 2:50 pm NW 11.1 31.1----29.73- 54.0- 34.3---
0221 2:49 pm NW 9.9 28.0----29.73- 54.0- 33.8---
0221 2:48 pm NW 13.0 35.9----29.73-0.03 54.1- 34.2---
0221 2:47 pm NW 11.1 32.1----29.73- 53.8- 31.3---
0221 2:46 pm NW 9.9 28.0----29.73- 54.0- 34.9---
0221 2:45 pm NW 11.1 31.1----29.73- 54.0- 34.9---
0221 2:44 pm NW 12.0 38.1----29.73- 54.0- 35.4---
0221 2:43 pmWNW 13.0 38.1----29.73- 54.1- 36.3---
0221 2:42 pmWNW 11.1 34.0----29.73- 54.0- 35.4---
0221 2:41 pmWNW 11.1 32.1----29.73- 54.0- 33.3---
0221 2:40 pm NW 11.1 34.0----29.73- 54.0- 33.4---
0221 2:39 pm NW 11.1 28.9----29.73- 54.0- 33.8---
0221 2:38 pm NW 11.1 32.1----29.73- 54.1- 34.9---
0221 2:37 pm NW 9.9 28.9----29.73- 54.1- 32.2---
0221 2:36 pm NW 11.1 29.9----29.73- 54.5- 34.5---
0221 2:35 pmNNW 7.0 24.1----29.73- 54.1- 33.1---
0221 2:34 pm NW 8.9 25.1----29.73- 54.1- 32.2---
0221 2:33 pm NW 8.9 27.0----29.73- 54.0- 32.0---
0221 2:32 pm NW 8.9 28.0----29.73- 54.0- 31.8---
0221 2:31 pm NW 9.9 27.0----29.73- 54.3- 33.4---
0221 2:30 pm NW 8.9 28.0----29.73- 54.1- 32.4---
0221 2:29 pm NW 8.9 26.0----29.73- 54.1- 35.1---
0221 2:28 pm NW 9.9 28.0----29.73- 54.0- 32.7---
0221 2:27 pm NW 11.1 31.1----29.73- 54.0- 33.8---
0221 2:26 pm NW 9.9 31.1----29.73- 54.1- 34.9---
0221 2:25 pm NW 8.9 27.0----29.73- 54.0- 35.6---
0221 2:24 pm NW 8.0 28.0----29.73- 53.6- 33.6---
0221 2:23 pmWNW 8.9 26.0----29.73- 53.6- 32.9---
0221 2:22 pm NW 9.9 28.9----29.73- 53.8- 32.0---
0221 2:21 pmNNW 8.9 28.0----29.73- 53.8- 33.6---
0221 2:20 pm NW 11.1 28.9----29.73- 53.8- 32.7---
0221 2:19 pm NW 11.1 33.0----29.73- 54.0- 35.8---
0221 2:18 pm NW 8.0 24.1----29.73- 54.0- 35.2---
0221 2:17 pm NW 8.9 26.0----29.73- 54.0- 33.8---
0221 2:16 pm NW 8.0 28.0----29.73- 53.8- 32.2---
0221 2:15 pm NW 8.9 28.0----29.73- 54.0- 34.3---
0221 2:14 pm NW 8.9 28.0----29.73- 53.6- 33.6 33.68--
0221 2:13 pm NW 8.9 28.0----29.73- 54.0- 35.2---
0221 2:12 pm NW 8.0 26.0----29.73- 53.6- 35.6---
0221 2:11 pm NW 8.9 27.0----29.73- 53.6- 35.1---
0221 2:10 pmWNW 8.9 28.0----29.73- 53.4- 34.2---
0221 2:09 pmWNW 11.1 29.9----29.73- 53.4- 34.3---
0221 2:08 pmWNW 11.1 31.1----29.73- 53.4- 33.8---
0221 2:07 pm NW 12.0 34.0----29.73- 53.6- 35.4---
0221 2:06 pmWNW 12.0 33.0----29.73- 53.8- 35.2---
0221 2:05 pm NW 8.9 28.9----29.73- 53.6- 34.2---
0221 2:04 pm NW 12.0 31.1----29.73- 54.0- 35.4---
0221 2:03 pm NW 8.0 33.0----29.73- 54.0- 33.8---
0221 2:02 pm NW 8.0 22.0----29.73- 54.0- 33.3---
0221 2:01 pm NW 8.0 24.1----29.73- 53.8- 31.3---
0221 2:00 pm NW 8.9 28.0----29.73- 53.6- 31.1---
0221 1:59 pm NW 8.0 27.0----29.73- 53.6- 32.4---
0221 1:58 pm NW 8.9 26.0----29.73- 53.6- 32.9---
0221 1:57 pm NW 7.0 20.0----29.73- 53.6- 33.6---
0221 1:56 pm NW 8.0 21.0----29.73- 53.4- 32.9---
0221 1:55 pm NW 8.9 28.0----29.73- 53.4- 33.6---
0221 1:54 pm NW 9.9 28.0----29.73- 53.6- 35.1---
0221 1:53 pm NW 9.9 29.9----29.73- 53.6- 35.8---
0221 1:52 pm NW 8.9 27.0----29.73- 53.2- 34.9---
0221 1:51 pm NW 11.1 33.0----29.73- 53.2- 34.7---
0221 1:50 pmWNW 12.0 34.0----29.73- 53.1- 34.0---
0221 1:49 pm NW 11.1 31.1----29.73- 53.2- 34.9---
0221 1:48 pm NW 9.9 29.9----29.73-0.03 53.4- 35.8---
0221 1:47 pm NW 9.9 29.9----29.73- 53.4- 36.3---
0221 1:46 pm NW 9.9 28.9----29.73- 53.2- 36.5---
0221 1:45 pmWNW 11.1 36.9----29.73- 53.1- 36.1---
0221 1:44 pmWNW 11.1 28.9----29.73- 53.2- 36.0---
0221 1:43 pmWNW 9.9 26.0----29.73- 52.9- 36.5---
0221 1:42 pm W 8.0 22.0----29.73- 52.3- 35.8---
0221 1:41 pm W 9.9 26.0----29.73- 52.9- 36.1---
0221 1:40 pm W 9.9 24.1----29.73- 52.9- 34.7---
0221 1:39 pm W 9.9 28.0----29.73- 53.4- 35.8---
0221 1:38 pm W 6.0 22.0----29.73- 53.2- 32.9---
0221 1:37 pmSSW 4.1 15.0----29.73- 52.2- 32.0---
0221 1:36 pm SW 4.1 13.0----29.73- 52.7- 33.6---
0221 1:35 pm W 6.0 20.0----29.74- 52.5- 34.2---
0221 1:34 pm W 6.0 20.0----29.74- 52.3- 34.0---
0221 1:33 pmWNW 6.0 19.0----29.74- 52.9- 34.3---
0221 1:32 pmWNW 7.0 21.0----29.74- 52.7- 33.8---
0221 1:31 pm W 8.9 25.1----29.74- 52.9- 36.5---
0221 1:30 pm W 8.0 22.9----29.74- 53.2- 35.8---
0221 1:29 pm W 8.0 22.0----29.74- 53.2- 35.8---
0221 1:28 pm W 7.0 21.0----29.74- 52.5- 34.5---
0221 1:27 pm W 7.0 20.0----29.74- 52.2- 33.4---
0221 1:26 pmWNW 8.9 25.1----29.74- 52.0- 33.3---
0221 1:25 pmWNW 9.9 26.0----29.74- 52.0- 33.8---
0221 1:24 pmWNW 9.9 26.0----29.74- 52.2- 34.5---
0221 1:23 pm W 12.0 31.1----29.74- 52.5- 35.6---
0221 1:22 pm W 9.9 28.9----29.74- 52.0- 34.5---
0221 1:21 pm W 8.9 22.9----29.74- 51.4- 32.0---
0221 1:20 pmWNW 7.0 17.1----29.74- 51.4- 32.7---
0221 1:19 pmWNW 7.0 18.1----29.74- 51.4- 32.2---
0221 1:18 pmWNW 8.0 22.9----29.74- 51.8- 33.8---
0221 1:17 pmWNW 8.9 24.1----29.74- 52.0- 33.8---
0221 1:16 pmWNW 8.9 24.1----29.74- 52.0- 32.7---
0221 1:15 pmWNW 8.0 20.0----29.74- 52.2- 35.1---
0221 1:14 pmWNW 7.0 22.0----29.74- 51.8- 35.1 33.47--
0221 1:13 pm W 9.9 25.1----29.74- 52.0- 35.1---
0221 1:12 pm W 9.9 26.0----29.74- 52.5- 36.9---
0221 1:11 pm W 8.9 26.0----29.74- 52.3- 35.6---
0221 1:10 pm W 8.0 25.1----29.74- 52.3- 36.1---
0221 1:09 pm W 9.9 26.0----29.74- 52.5- 36.0---
0221 1:08 pm W 8.0 25.1----29.75- 52.5- 36.1---
0221 1:07 pm W 8.0 22.0----29.75- 52.3- 37.0---
0221 1:06 pmWNW 8.0 27.0----29.75- 51.8- 34.7---
0221 1:05 pmWNW 9.9 28.0----29.75- 52.3- 35.1---
0221 1:04 pmWNW 8.9 25.1----29.75- 52.2- 34.9---
0221 1:03 pmWNW 8.9 24.1----29.75- 52.7- 35.6---
0221 1:02 pm W 7.0 22.9----29.75- 52.7- 36.5---
0221 1:01 pm W 7.0 21.0----29.75- 52.2- 34.0---
0221 1:00 pm W 8.9 22.9----29.75- 52.5- 35.4---
022112:59 pm W 8.9 24.1----29.75- 52.5- 35.1---
022112:58 pm W 8.9 26.0----29.75- 52.3- 35.4---
022112:57 pm W 6.0 19.0----29.75- 51.4- 32.9---
022112:56 pm W 9.9 27.0----29.75- 51.6- 35.1---
022112:55 pm W 9.9 26.0----29.75- 51.8- 33.8---
022112:54 pm W 9.9 28.0----29.75- 52.3- 36.5---
022112:53 pm W 8.9 26.0----29.75- 52.9- 36.5---
022112:52 pm W 8.9 24.1----29.75- 52.2- 36.0---
022112:51 pm W 8.9 25.1----29.75- 52.0- 34.9---
022112:50 pm W 8.0 22.0----29.75- 51.8- 34.9---
022112:49 pm W 8.0 22.9----29.75- 51.4- 34.3---
022112:48 pmWNW 8.0 22.0----29.75-0.02 51.8- 34.3---
022112:47 pm W 6.0 19.0----29.75- 52.0- 35.6---
022112:46 pmWNW 8.0 22.9----29.75- 52.0- 34.7---
022112:45 pmWNW 8.9 25.1----29.75- 52.9- 36.5---
022112:44 pm W 8.9 25.1----29.75- 52.3- 35.8---
022112:43 pm W 8.0 21.0----29.75- 52.2- 34.9---
022112:42 pm W 8.9 25.1----29.75- 52.2- 35.2---
022112:41 pm W 9.9 28.0----29.75- 52.5- 37.0---
022112:40 pm W 8.0 27.0----29.75- 52.2- 36.5---
022112:39 pm W 8.9 25.1----29.75- 52.5- 36.1---
022112:38 pm W 8.0 24.1----29.75- 52.2- 36.1---
022112:37 pm W 8.9 24.1----29.75- 52.0- 34.9---
022112:36 pm W 8.9 28.0----29.75- 52.0- 35.4---
022112:35 pm W 8.9 25.1----29.75- 52.0- 34.0---
022112:34 pmWNW 7.0 19.0----29.75- 51.3- 31.1---
022112:33 pmWNW 7.0 22.9----29.75- 51.6- 31.8---
022112:32 pmWNW 8.9 24.1----29.75- 51.6- 32.9---
022112:31 pmWNW 8.0 22.9----29.75- 51.4- 31.8---
022112:30 pm NW 5.1 15.0----29.75- 51.3- 32.2---
022112:29 pm NW 8.0 22.9----29.75- 51.1- 30.7---
022112:28 pmWNW 7.0 19.0----29.75- 51.3- 31.3---
022112:27 pmWNW 8.9 24.1----29.75- 51.1- 31.1---
022112:26 pmWNW 9.9 26.0----29.75- 51.1- 30.4---
022112:25 pm NW 11.1 31.1----29.75- 52.2- 34.0---
022112:24 pm NW 5.1 22.0----29.75- 51.8- 33.6---
022112:23 pmWNW 7.0 21.0----29.75- 51.8- 32.7---
022112:22 pm W 8.0 21.0----29.75- 51.4- 32.7---
022112:21 pmWNW 9.9 27.0----29.75- 51.6- 34.0---
022112:20 pmWNW 8.0 21.0----29.75- 51.4- 32.9---
022112:19 pmWNW 8.0 20.0----29.75- 51.4- 32.7---
022112:18 pmWNW 8.9 25.1----29.75- 51.8- 33.1---
022112:17 pmWNW 7.0 24.1----29.75- 51.8- 33.3---
022112:16 pm NW 5.1 15.9----29.75- 51.3- 32.0---
022112:15 pm NW 5.1 15.9----29.75- 51.4- 33.4---
022112:14 pm NW 4.1 14.0----29.75- 51.1- 31.8 33.46--
022112:13 pmWNW 5.1 13.0----29.75- 50.9- 31.1---
022112:12 pm NW 5.1 14.0----29.75- 51.1- 31.3---
022112:11 pm NW 6.0 15.9----29.75- 51.3- 32.4---
022112:10 pmWNW 5.1 20.0----29.75- 50.9- 31.6---
022112:09 pmWNW 8.9 22.9----29.75- 51.6- 34.0---
022112:08 pmWNW 6.0 19.0----29.75- 51.4- 32.9---
022112:07 pm NW 5.1 14.0----29.75- 51.1- 32.2---
022112:06 pm NW 5.1 15.9----29.75- 50.9- 32.0---
022112:05 pm NW 7.0 22.9----29.75- 51.1- 33.1---
022112:04 pm NW 8.0 24.1----29.75- 51.3- 34.0---
022112:03 pmWNW 6.0 15.9----29.75- 51.4- 34.2---
022112:02 pmWNW 5.1 15.0----29.76- 51.1- 33.6---
022112:01 pmWNW 5.1 14.0----29.76- 50.7- 32.0---
022112:00 pmWNW 5.1 17.1----29.76- 50.5- 32.5---
022111:59 amWNW 7.0 21.0----29.76- 50.9- 32.7---
022111:58 amWNW 6.0 17.1----29.76- 50.7- 32.2---
022111:57 amWNW 8.0 22.9----29.76- 51.1- 33.8---
022111:56 am NW 8.0 22.9----29.76- 51.3- 35.4---
022111:55 amWNW 6.0 18.1----29.76- 50.9- 33.6---
022111:54 amWNW 6.0 15.0----29.76- 50.7- 32.9---
022111:53 amWNW 6.0 15.0----29.76- 50.5- 32.4---
022111:52 amWNW 7.0 17.1----29.76- 50.9- 33.3---
022111:51 amWNW 6.0 17.1----29.76- 50.9- 33.4---
022111:50 am NW 5.1 13.0----29.76- 50.4- 32.4---
022111:49 am NW 6.0 19.0----29.76- 50.4- 33.3---
022111:48 amWNW 8.0 21.0----29.76-0.01 50.9- 34.3---
022111:47 amWNW 7.0 17.1----29.76- 50.7- 32.7---
022111:46 amWNW 8.0 22.9----29.76- 51.1- 34.3---
022111:45 am NW 5.1 20.0----29.76- 50.7- 32.5---
022111:44 amNNW 4.1 13.0----29.76- 50.5- 31.6---
022111:43 am NW 6.0 20.0----29.76- 50.9- 33.6---
022111:42 amNNW 5.1 18.1----29.76- 50.5- 33.3---
022111:41 am NW 6.0 19.0----29.76- 50.7- 34.5---
022111:40 am NW 6.0 19.0----29.76- 50.4- 34.0---
022111:39 am NW 6.0 15.0----29.76- 50.2- 33.1---
022111:38 amWNW 6.0 17.1----29.76- 50.4- 33.1---
022111:37 am NW 6.0 17.1----29.76- 50.4- 33.8---
022111:36 am NW 5.1 15.9----29.76- 50.2- 32.9---
022111:35 amWNW 5.1 14.0----29.76- 50.4- 34.3---
022111:34 amWNW 7.0 21.0----29.76- 50.2- 32.5---
022111:33 am W 6.0 20.0----29.76- 50.2- 33.3---
022111:32 amWNW 6.0 18.1----29.76- 50.2- 32.7---
022111:31 am NW 4.1 12.0----29.76- 50.0- 31.8---
022111:30 am NW 6.0 18.1----29.76- 50.4- 33.3---
022111:29 am NW 6.0 18.1----29.76- 50.5- 34.0---
022111:28 am NW 6.0 19.0----29.76- 50.5- 33.3---
022111:27 amNNW 5.1 17.1----29.76- 50.4- 33.1---
022111:26 amNNW 4.1 14.0----29.76- 50.2- 33.3---
022111:25 amNNW 6.0 21.0----29.76- 50.2- 33.1---
022111:24 am NW 6.0 18.1----29.76- 50.4- 34.3---
022111:23 am NW 6.0 18.1----29.76- 50.4- 34.2---
022111:22 am NW 5.1 15.9----29.76- 49.8- 33.1---
022111:21 am NW 7.0 21.0----29.76- 50.0- 34.7---
022111:20 am NW 7.0 19.0----29.76- 49.8- 33.6---
022111:19 am NW 5.1 14.0----29.76- 49.6- 33.4---
022111:18 am NW 5.1 20.0----29.76- 49.6- 34.0---
022111:17 amWNW 8.0 21.0----29.76- 49.5- 32.9---
022111:16 amWNW 7.0 19.0----29.76- 49.6- 33.3---
022111:15 amWNW 8.0 22.0----29.76- 49.6- 33.6---
022111:14 amWNW 7.0 21.0----29.76- 49.6- 33.4 33.44--
022111:13 amWNW 8.0 21.0----29.76- 49.6- 34.2---
022111:12 am NW 7.0 21.0----29.76- 49.5- 33.1---
022111:11 am NW 8.9 26.0----29.76- 49.8- 34.7---
022111:10 am NW 7.0 25.1----29.76- 50.0- 35.4---
022111:09 am NW 7.0 22.0----29.76- 49.5- 33.1---
022111:08 amWNW 6.0 15.9----29.76- 49.6- 32.9---
022111:07 am NW 5.1 14.0----29.76- 49.6- 32.9---
022111:06 am NW 7.0 18.1----29.76- 50.2- 34.2---
022111:05 am NW 4.1 14.0----29.76- 50.0- 33.1---
022111:04 am NW 4.1 11.1----29.76- 50.5- 34.5---
022111:03 amWNW 2.9 8.9----29.76- 50.0- 33.1---
022111:02 am NW 1.0 5.1----29.76- 49.5- 32.5---
022111:01 amNNW 2.9 8.0----29.76- 49.5- 32.5---
022111:00 amNNW 1.9 8.0----29.76- 49.5- 32.7---
022110:59 amNNW 2.9 8.9----29.76- 49.5- 33.1---
022110:58 amNNW 2.9 12.0----29.76- 49.3- 33.1---
022110:57 am NW 4.1 13.0----29.76- 49.1- 32.7---
022110:56 am NW 4.1 13.0----29.76- 48.9- 32.2---
022110:55 amNNW 5.1 15.0----29.76- 49.1- 32.4---
022110:54 amNNW 5.1 13.0----29.76- 49.5- 33.6---
022110:53 amNNW 5.1 14.0----29.76- 49.3- 33.3---
022110:52 am NW 5.1 17.1----29.76- 49.5- 33.8---
022110:51 amNNW 4.1 17.1----29.76- 49.1- 32.7---
022110:50 am NW 4.1 14.0----29.76- 49.3- 33.4---
022110:49 am NW 5.1 15.0----29.76- 49.5- 34.0---
022110:48 am NW 5.1 15.0----29.76+0.00 49.5- 34.0---
022110:47 am NW 4.1 13.0----29.76- 49.5- 33.4---
022110:46 am NW 4.1 12.0----29.76- 49.6- 34.3---
022110:45 am NW 4.1 13.0----29.76- 49.6- 34.3---
022110:44 amNNW 2.9 14.0----29.76- 49.5- 33.6---
022110:43 amNNW 5.1 14.0----29.76- 49.5- 34.9---
022110:42 amNNW 4.1 13.0----29.76- 48.9- 34.0---
022110:41 amNNW 6.0 18.1----29.76- 48.9- 34.0---
022110:40 am NW 6.0 18.1----29.76- 48.9- 34.5---
022110:39 am NW 6.0 19.0----29.76- 48.7- 33.6---
022110:38 amWNW 7.0 18.1----29.76- 48.9- 34.5---
022110:37 am NW 6.0 20.0----29.76- 48.7- 33.4---
022110:36 am NW 5.1 13.0----29.76- 48.7- 34.2---
022110:35 am NW 5.1 14.0----29.76- 48.4- 32.7---
022110:34 amWNW 5.1 13.0----29.76- 48.7- 33.4---
022110:33 amWNW 5.1 15.0----29.76- 49.1- 35.1---
022110:32 amWNW 5.1 15.0----29.76- 49.3- 35.1---
022110:31 am NW 6.0 18.1----29.76- 49.3- 34.2---
022110:30 am NW 4.1 13.0----29.76- 49.3- 34.3---
022110:29 am NW 1.9 9.9----29.76- 48.7- 32.9---
022110:28 am NW 2.9 8.9----29.76- 48.7- 33.3---
022110:27 am NW 2.9 9.9----29.76- 48.6- 32.7---
022110:26 amNNW 2.9 11.1----29.76- 48.4- 32.5---
022110:25 amNNW 5.1 14.0----29.76- 48.7- 33.6---
022110:24 am NW 2.9 9.9----29.76- 48.4- 32.7---
022110:23 amNNW 4.1 13.0----29.76- 48.6- 33.4---
022110:22 amNNW 6.0 17.1----29.76- 48.6- 34.2---
022110:21 am NW 4.1 15.0----29.76- 48.4- 34.0---
022110:20 am NW 5.1 15.0----29.76- 48.2- 34.3---
022110:19 am NW 4.1 11.1----29.76- 48.2- 33.8---
022110:18 am NW 4.1 11.1----29.76- 48.2- 34.0---
022110:17 am NW 4.1 11.1----29.77- 48.2- 34.2---
022110:16 am NW 2.9 8.9----29.77- 48.2- 33.6---
022110:15 am NW 4.1 11.1----29.77- 48.4- 33.8---
022110:14 am N 4.1 14.0----29.77- 48.2- 34.0 33.26--
022110:13 am N 4.1 9.9----29.77- 48.2- 33.4---
022110:12 am NW 4.1 13.0----29.77- 48.7- 34.5---
022110:11 amWNW 4.1 13.0----29.77- 48.7- 34.9---
022110:10 am NW 2.9 8.9----29.77- 48.2- 34.0---
022110:09 amWNW 1.9 7.0----29.77- 48.0- 34.0---
022110:08 amWNW 2.9 8.0----29.77- 47.7- 33.6---
022110:07 am NW 4.1 11.1----29.77- 47.5- 33.6---
022110:06 am NW 5.1 14.0----29.77- 47.7- 33.4---
022110:05 amWNW 7.0 18.1----29.77- 48.0- 35.1---
022110:04 am NW 5.1 17.1----29.77- 48.0- 35.1---
022110:03 am NW 5.1 15.0----29.77- 48.2- 35.6---
022110:02 amWNW 4.1 14.0----29.77- 48.2- 35.1---
022110:01 am W 5.1 13.0----29.77- 48.4- 35.8---
022110:00 am W 4.1 12.0----29.77- 47.8- 35.4---
0221 9:59 am W 5.1 15.9----29.77- 47.7- 35.1---
0221 9:58 amWNW 7.0 17.1----29.77- 47.7- 35.2---
0221 9:57 amWNW 5.1 15.0----29.77- 47.5- 34.7---
0221 9:56 amWNW 7.0 18.1----29.77- 47.7- 34.7---
0221 9:55 amWNW 6.0 15.9----29.77- 48.0- 34.9---
0221 9:54 am NW 6.0 19.0----29.77- 48.2- 34.5---
0221 9:53 amWNW 5.1 14.0----29.77- 48.2- 35.1---
0221 9:52 am NW 4.1 13.0----29.77- 47.5- 33.6---
0221 9:51 am NW 4.1 12.0----29.77- 47.5- 32.9---
0221 9:50 am NW 4.1 12.0----29.77- 47.5- 33.1---
0221 9:49 am NW 5.1 15.0----29.77- 47.5- 33.3---
0221 9:48 am NW 6.0 18.1----29.77+0.04 48.0- 34.2---
0221 9:47 am NW 5.1 19.0----29.77- 48.2- 34.2---
0221 9:46 amNNW 4.1 15.0----29.77- 48.0- 33.6---
0221 9:45 amNNW 2.9 11.1----29.77- 47.8- 33.3---
0221 9:44 amNNW 2.9 11.1----29.77- 47.8- 32.9---
0221 9:43 amNNW 2.9 8.9----29.77- 47.7- 32.9---
0221 9:42 am NW 2.9 12.0----29.77- 47.8- 33.4---
0221 9:41 amNNW 2.9 9.9----29.77- 47.8- 33.4---
0221 9:40 amNNW 4.1 15.0----29.77- 48.2- 35.2---
0221 9:39 amNNW 5.1 17.1----29.77- 48.0- 34.0---
0221 9:38 am NW 5.1 17.1----29.77- 48.0- 33.6---
0221 9:37 am NW 5.1 17.1----29.77- 48.4- 34.2---
0221 9:36 amNNW 5.1 15.0----29.77- 48.4- 33.1---
0221 9:35 am N 5.1 15.0----29.77- 48.6- 33.1---
0221 9:34 am N 4.1 13.0----29.77- 48.9- 32.7---
0221 9:33 am N 4.1 15.0----29.77- 48.6- 33.1---
0221 9:32 am N 2.9 8.9----29.77- 48.2- 32.5---
0221 9:31 am NE 2.9 11.1----29.77- 48.2- 32.7---
0221 9:30 am NE 5.1 15.0----29.77- 48.2- 32.2---
0221 9:29 amNNE 2.9 8.0----29.77- 48.2- 32.0---
0221 9:28 am N 4.1 13.0----29.77- 48.4- 32.4---
0221 9:27 amNNE 4.1 17.1----29.77- 48.4- 33.1---
0221 9:26 amNNE 5.1 18.1----29.77- 48.2- 33.4---
0221 9:25 amNNE 4.1 13.0----29.77- 47.7- 33.3---
0221 9:24 am N 2.9 12.0----29.77- 47.5- 33.3---
0221 9:23 amNNE 4.1 18.1----29.77- 47.8- 34.3---
0221 9:22 am N 2.9 11.1----29.77- 47.7- 34.7---
0221 9:21 am N 4.1 12.0----29.77- 47.1- 34.0---
0221 9:20 amNNW 5.1 15.9----29.77- 47.1- 34.9---
0221 9:19 am NW 5.1 14.0----29.77- 47.3- 36.3---
0221 9:18 am NW 4.1 13.0----29.77- 47.5- 36.5---
0221 9:17 am NW 4.1 12.0----29.77- 47.3- 36.3---
0221 9:16 amNNW 4.1 9.9----29.77- 47.1- 36.0---
0221 9:15 am NW 1.9 8.0----29.77- 46.9- 35.8---
0221 9:14 amNNW 1.0 4.1----29.77- 46.9- 35.4 33.47--
0221 9:13 amNNW 1.9 8.9----29.77- 46.9- 35.8---
0221 9:12 amWNW 2.9 8.0----29.77- 46.9- 35.8---
0221 9:11 am W 1.9 5.1----29.77- 47.1- 36.5---
0221 9:10 am W 1.9 6.0----29.77- 46.8- 36.0---
0221 9:09 am W 1.9 6.0----29.77- 46.8- 36.1---
0221 9:08 am W 1.0 5.1----29.77- 46.8- 36.0---
0221 9:07 am W 1.9 7.0----29.77- 46.8- 35.8---
0221 9:06 am W 1.9 7.0----29.77- 46.4- 36.1---
0221 9:05 am W 1.9 7.0----29.77- 46.2- 35.6---
0221 9:04 am W 1.9 8.9----29.77- 46.2- 36.1---
0221 9:03 amWNW 2.9 8.9----29.77- 46.0- 36.0---
0221 9:02 amWNW 2.9 8.9----29.77- 46.0- 36.0---
0221 9:01 amWNW 2.9 8.9----29.77- 45.9- 35.6---
0221 9:00 am NW 4.1 11.1----29.77- 45.9- 36.0---
0221 8:59 am NW 5.1 13.0----29.77- 45.9- 36.0---
0221 8:58 amWNW 4.1 13.0----29.77- 45.5- 35.8---
0221 8:57 amNNW 1.9 8.9----29.77- 45.5- 35.2---
0221 8:56 am NW 5.1 15.0----29.77- 45.7- 35.8---
0221 8:55 amWNW 5.1 18.1----29.77- 45.5- 35.4---
0221 8:54 amWNW 6.0 15.9----29.77- 46.0- 36.3---
0221 8:53 amWNW 2.9 12.0----29.77- 46.0- 36.7---
0221 8:52 am NW 4.1 11.1----29.77- 45.7- 35.8---
0221 8:51 am NW 4.1 9.9----29.77- 45.9- 36.3---
0221 8:50 amWNW 4.1 11.1----29.77- 45.9- 36.1---
0221 8:49 amWNW 1.9 8.9----29.77- 45.9- 36.3---
0221 8:48 am NW 4.1 11.1----29.77+0.04 46.0- 36.7---
0221 8:47 am NW 4.1 11.1----29.77- 46.0- 36.5---
0221 8:46 am NW 2.9 12.0----29.77- 46.0- 36.5---
0221 8:45 amNNW 2.9 8.0----29.77- 45.7- 36.0---
0221 8:44 amNNW 2.9 9.9----29.77- 45.7- 36.1---
0221 8:43 am NW 2.9 8.9----29.77- 45.7- 35.8---
0221 8:42 amNNW 2.9 8.9----29.77- 45.7- 35.6---
0221 8:41 amNNW 4.1 11.1----29.77- 45.7- 35.8---
0221 8:40 amNNW 1.9 8.0----29.77- 45.9- 35.4---
0221 8:39 am N 4.1 11.1----29.77- 46.0- 36.5---
0221 8:38 am N 2.9 9.9----29.77- 46.0- 36.0---
0221 8:37 am N 5.1 15.0----29.77- 46.2- 36.7---
0221 8:36 amNNE 2.9 15.9----29.77- 46.0- 36.5---
0221 8:35 am N 4.1 11.1----29.77- 45.9- 36.7---
0221 8:34 am N 2.9 12.0----29.77- 45.7- 36.3---
0221 8:33 am N 4.1 12.0----29.77- 45.7- 36.3---
0221 8:32 am N 4.1 11.1----29.77- 45.5- 36.1---
0221 8:31 am N 2.9 13.0----29.76- 45.5- 36.3---
0221 8:30 amNNE 2.9 8.9----29.76- 45.3- 36.1---
0221 8:29 am N 2.9 9.9----29.77- 45.1- 36.3---
0221 8:28 am N 2.9 8.9----29.76- 44.8- 35.6---
0221 8:27 amNNE 4.1 15.0----29.76- 44.4- 35.6---
0221 8:26 am N 2.9 9.9----29.77- 44.6- 36.0---
0221 8:25 amNNE 4.1 15.0----29.76- 44.4- 35.6---
0221 8:24 amNNW 4.1 14.0----29.76- 44.4- 35.8---
0221 8:23 am N 1.9 8.9----29.77- 44.2- 35.6---
0221 8:22 amNNE 1.9 8.0----29.77- 44.6- 35.6---
0221 8:21 amNNE 2.9 8.9----29.76- 44.4- 36.0---
0221 8:20 amNNE 2.9 13.0----29.76- 43.9- 36.0---
0221 8:19 amNNE 2.9 12.0----29.77- 43.3- 36.5---
0221 8:18 amENE 2.9 8.9----29.77- 43.0- 36.1---
0221 8:17 amNNE 1.9 5.1----29.77- 42.8- 36.0---
0221 8:16 am NE 1.9 7.0----29.77- 42.6- 36.1---
0221 8:15 am NE 1.0 5.1----29.77- 42.4- 36.0---
0221 8:14 am NE 1.0 4.1----29.76- 42.1- 35.6 33.43--
0221 8:13 am NE 1.9 6.0----29.77- 42.1- 35.4---
0221 8:12 amENE 1.9 6.0----29.76- 42.1- 35.6---
0221 8:11 amENE 1.9 5.1----29.76- 41.9- 35.4---
0221 8:10 am NE 1.9 7.0----29.76- 41.9- 35.4---
0221 8:09 am NE 1.9 7.0----29.76- 41.7- 35.2---
0221 8:08 amENE 1.0 2.9----29.76- 41.7- 35.1---
0221 8:07 amENE 1.0 4.1----29.76- 41.7- 34.9---
0221 8:06 am NE 1.9 7.0----29.76- 41.7- 35.1---
0221 8:05 amNNE 1.9 7.0----29.76- 41.7- 35.1---
0221 8:04 amNNE 2.9 7.0----29.76- 41.7- 35.2---
0221 8:03 amNNE 1.9 8.9----29.76- 41.7- 35.1---
0221 8:02 amNNE 1.9 6.0----29.76- 41.5- 35.1---
0221 8:01 am N 1.9 5.1----29.76- 41.5- 35.2---
0221 8:00 am- 0.0 4.1----29.76- 41.7- 35.2---
0221 7:59 amNNE 1.9 8.0----29.76- 41.7- 35.2---
0221 7:58 am NE 2.9 7.0----29.76- 41.5- 35.1---
0221 7:57 amENE 1.9 6.0----29.76- 41.7- 35.1---
0221 7:56 am NE 2.9 6.0----29.76- 41.5- 35.1---
0221 7:55 amNNE 1.9 7.0----29.76- 41.5- 35.1---
0221 7:54 amNNE 1.9 7.0----29.76- 41.5- 35.1---
0221 7:53 amNNE 2.9 8.9----29.76- 41.4- 35.1---
0221 7:52 amNNE 4.1 9.9----29.76- 41.4- 35.1---
0221 7:51 am NE 4.1 11.1----29.76- 41.4- 35.1---
0221 7:50 amENE 2.9 8.9----29.76- 41.4- 34.9---
0221 7:49 amENE 2.9 8.9----29.75- 41.4- 34.7---
0221 7:48 am NE 2.9 8.0----29.76+0.04 41.5- 34.9---
0221 7:47 amNNE 4.1 12.0----29.76- 41.5- 34.9---
0221 7:46 amNNE 4.1 13.0----29.76- 41.5- 35.1---
0221 7:45 amNNE 2.9 9.9----29.75- 41.5- 35.1---
0221 7:44 amNNE 2.9 8.0----29.75- 41.7- 35.2---
0221 7:43 amNNE 1.9 8.0----29.75- 41.5- 35.1---
0221 7:42 amNNE 4.1 11.1----29.75- 41.5- 35.2---
0221 7:41 amNNE 2.9 8.9----29.75- 41.5- 35.2---
0221 7:40 am NE 2.9 8.0----29.75- 41.5- 35.4---
0221 7:39 am NE 2.9 7.0----29.75- 41.5- 35.2---
0221 7:38 am NE 2.9 9.9----29.75- 41.7- 35.2---
0221 7:37 am NE 4.1 11.1----29.75- 41.9- 35.2---
0221 7:36 amNNE 4.1 11.1----29.75- 42.1- 35.4---
0221 7:35 amNNE 2.9 8.9----29.75- 42.1- 35.6---
0221 7:34 amNNE 2.9 9.9----29.75- 42.1- 36.0---
0221 7:33 amNNE 2.9 8.9----29.75- 42.1- 36.0---
0221 7:32 amNNE 4.1 13.0----29.75- 42.1- 36.1---
0221 7:31 amNNE 4.1 12.0----29.75- 42.1- 36.1---
0221 7:30 am NE 5.1 12.0----29.75- 41.9- 36.3---
0221 7:29 am NE 2.9 8.9----29.75- 41.7- 36.5---
0221 7:28 am- 0.0 2.9----29.75- 41.7- 36.7---
0221 7:27 am- 0.0 2.9----29.75- 41.7- 36.5---
0221 7:26 am- 0.0 2.9----29.75- 41.5- 36.1---
0221 7:25 am NE 1.0 5.1----29.75- 41.4- 36.3---
0221 7:24 am NE 1.9 5.1----29.75- 41.2- 36.3---
0221 7:23 am NE 1.9 7.0----29.75- 41.0- 36.7---
0221 7:22 amNNE 1.9 6.0----29.75- 40.8- 36.7---
0221 7:21 am- 0.0 0.0----29.75- 40.8- 36.7---
0221 7:20 am- 0.0 0.0----29.75- 40.6- 36.5---
0221 7:19 am NE 1.0 4.1----29.75- 40.6- 36.7---
0221 7:18 am- 0.0 0.0----29.75- 40.8- 36.9---
0221 7:17 am- 0.0 0.0----29.75- 40.8- 36.5---
0221 7:16 amESE 1.0 5.1----29.75- 40.8- 36.7---
0221 7:15 amESE 1.9 5.1----29.75- 40.5- 36.3---
0221 7:14 am E 1.9 5.1----29.75- 40.1- 36.3 33.48--
0221 7:13 amNNE 1.0 2.9----29.75- 39.9- 36.3---
0221 7:12 am- 0.0 2.9----29.75- 39.9- 36.3---
0221 7:11 amNNE 1.9 5.1----29.75- 39.9- 36.3---
0221 7:10 am- 0.0 0.0----29.75- 39.9- 36.3---
0221 7:09 am E 1.0 5.1----29.74- 39.7- 36.1---
0221 7:08 am E 1.9 5.1----29.74- 39.4- 35.8---
0221 7:07 am- 0.0 0.0----29.74- 39.2- 35.8---
0221 7:06 am- 0.0 0.0----29.74- 39.4- 35.8---
0221 7:05 am- 0.0 0.0----29.74- 39.4- 35.6---
0221 7:04 am NE 1.0 4.1----29.74- 39.6- 35.6---
0221 7:03 am NE 2.9 7.0----29.74- 39.6- 35.8---
0221 7:02 am NE 2.9 8.9----29.74- 39.6- 35.6---
0221 7:01 am NE 4.1 19.0----29.74- 39.2- 35.6---
0221 7:00 am NE 6.0 19.0----29.74- 38.8- 35.4---
0221 6:59 am NE 1.9 8.9----29.74- 38.7- 35.2---
0221 6:58 am- 0.0 0.0----29.74- 38.7- 35.2---
0221 6:57 amESE 1.0 4.1----29.74- 38.7- 35.2---
0221 6:56 amESE 1.0 4.1----29.74- 38.5- 35.2---
0221 6:55 am E 1.9 4.1----29.74- 38.5- 35.2---
0221 6:54 am E 1.9 4.1----29.74- 38.5- 35.1---
0221 6:53 amENE 1.9 4.1----29.74- 38.3- 35.1---
0221 6:52 amENE 1.9 6.0----29.74- 38.3- 34.9---
0221 6:51 amENE 1.9 6.0----29.74- 37.9- 34.5---
0221 6:50 amENE 1.9 4.1----29.73- 37.8- 34.5---
0221 6:49 am E 1.0 4.1----29.73- 37.6- 34.5---
0221 6:48 am- 0.0 1.9----29.73+0.02 37.6- 34.5---
0221 6:47 am- 0.0 4.1----29.73- 37.4- 34.3---
0221 6:46 am- 0.0 0.0----29.73- 37.4- 34.3---
0221 6:45 am- 0.0 1.0----29.73- 37.4- 34.2---
0221 6:44 am- 0.0 1.0----29.73- 37.4- 34.2---
0221 6:43 am- 0.0 2.9----29.73- 37.4- 34.2---
0221 6:42 amESE 1.0 5.1----29.73- 37.4- 34.2---
0221 6:41 am- 0.0 0.0----29.73- 37.6- 34.2---
0221 6:40 am- 0.0 1.0----29.73- 37.8- 34.2---
0221 6:39 amESE 1.0 4.1----29.72- 37.8- 34.2---
0221 6:38 amESE 1.9 5.1----29.72- 37.8- 34.3---
0221 6:37 amESE 1.0 5.1----29.72- 37.8- 34.2---
0221 6:36 am SE 1.0 5.1----29.72- 37.8- 34.2---
0221 6:35 am SE 1.9 6.0----29.72- 37.6- 34.2---
0221 6:34 amSSE 1.9 5.1----29.72- 37.8- 34.2---
0221 6:33 amSSE 1.9 6.0----29.72- 37.9- 34.5---
0221 6:32 amSSE 2.9 7.0----29.72- 37.9- 34.3---
0221 6:31 amSSE 1.9 5.1----29.72- 37.8- 34.3---
0221 6:30 amSSE 1.9 5.1----29.72- 37.9- 34.3---
0221 6:29 amSSE 1.9 5.1----29.72- 37.9- 34.3---
0221 6:28 am SE 1.9 6.0----29.73- 37.9- 34.3---
0221 6:27 am SE 1.9 4.1----29.73- 37.9- 34.3---
0221 6:26 am SE 1.9 6.0----29.73- 37.9- 34.2---
0221 6:25 am SE 1.9 7.0----29.73- 37.9- 34.2---
0221 6:24 am SE 1.9 6.0----29.73- 37.9- 34.2---
0221 6:23 am SE 1.9 7.0----29.73- 37.9- 34.2---
0221 6:22 amESE 2.9 7.0----29.73- 37.9- 34.2---
0221 6:21 amESE 1.9 6.0----29.72- 37.9- 34.2---
0221 6:20 amESE 2.9 7.0----29.73- 37.9- 34.3---
0221 6:19 amESE 2.9 7.0----29.73- 37.9- 34.3---
0221 6:18 amESE 2.9 7.0----29.73- 37.8- 34.2---
0221 6:17 am E 1.9 6.0----29.73- 37.8- 34.2---
0221 6:16 amESE 1.9 6.0----29.73- 37.8- 34.2---
0221 6:15 amESE 1.9 6.0----29.73- 37.8- 34.0---
0221 6:14 amESE 1.9 7.0----29.73- 37.8- 34.0 33.47--
0221 6:13 amESE 2.9 7.0----29.73- 37.8- 34.0---
0221 6:12 amESE 2.9 8.9----29.73- 37.8- 34.0---
0221 6:11 amESE 2.9 8.0----29.73- 37.9- 34.0---
0221 6:10 amESE 2.9 8.0----29.73- 37.9- 34.2---
0221 6:09 amESE 2.9 7.0----29.73- 37.9- 34.2---
0221 6:08 am E 2.9 8.0----29.73- 37.9- 34.2---
0221 6:07 am E 2.9 8.9----29.73- 38.1- 34.3---
0221 6:06 am E 2.9 8.0----29.73- 38.1- 34.2---
0221 6:05 amESE 2.9 7.0----29.72- 37.9- 34.2---
0221 6:04 amESE 2.9 8.9----29.72- 37.9- 34.0---
0221 6:03 amESE 4.1 11.1----29.72- 37.9- 34.0---
0221 6:02 amESE 4.1 11.1----29.72- 37.9- 33.8---
0221 6:01 amESE 5.1 12.0----29.72- 37.8- 33.8---
0221 6:00 amESE 6.0 14.0----29.72- 37.9- 33.8---
0221 5:59 amESE 5.1 14.0----29.72- 38.3- 34.0---
0221 5:58 amESE 5.1 13.0----29.72- 38.5- 34.2---
0221 5:57 amESE 5.1 13.0----29.72- 38.7- 34.2---
0221 5:56 amESE 5.1 12.0----29.72- 38.7- 34.2---
0221 5:55 amESE 5.1 11.1----29.72- 38.8- 34.5---
0221 5:54 am SE 5.1 12.0----29.72- 38.8- 34.5---
0221 5:53 amESE 5.1 12.0----29.72- 39.0- 34.7---
0221 5:52 amESE 4.1 9.9----29.72- 38.8- 34.7---
0221 5:51 amESE 2.9 9.9----29.72- 38.8- 34.7---
0221 5:50 amESE 2.9 8.0----29.72- 38.8- 34.9---
0221 5:49 am E 2.9 8.0----29.72- 38.8- 34.9---
0221 5:48 am E 2.9 7.0----29.72+0.00 39.0- 35.1---
0221 5:47 am E 1.9 5.1----29.72- 39.0- 35.1---
0221 5:46 am E 2.9 6.0----29.72- 39.2- 35.1---
0221 5:45 am E 1.9 6.0----29.72- 39.2- 35.2---
0221 5:44 amENE 1.9 6.0----29.72- 39.0- 34.9---
0221 5:43 am E 1.9 6.0----29.72- 39.0- 34.9---
0221 5:42 am E 2.9 7.0----29.72- 39.0- 34.7---
0221 5:41 am E 1.9 7.0----29.72- 39.2- 34.7---
0221 5:40 am E 2.9 8.0----29.72- 39.2- 34.7---
0221 5:39 amESE 2.9 7.0----29.72- 39.4- 34.9---
0221 5:38 amESE 2.9 8.0----29.72- 39.4- 34.7---
0221 5:37 am E 2.9 9.9----29.72- 39.6- 34.9---
0221 5:36 amESE 2.9 8.0----29.72- 39.6- 34.9---
0221 5:35 amESE 1.9 7.0----29.72- 39.7- 34.7---
0221 5:34 amESE 1.9 6.0----29.72- 39.7- 34.9---
0221 5:33 amESE 1.9 5.1----29.72- 39.7- 34.5---
0221 5:32 amESE 2.9 7.0----29.72- 40.3- 35.1---
0221 5:31 amESE 1.9 7.0----29.72- 40.3- 34.9---
0221 5:30 amESE 1.9 6.0----29.72- 40.1- 34.9---
0221 5:29 amESE 1.9 6.0----29.72- 40.1- 34.7---
0221 5:28 amESE 1.9 8.0----29.72- 40.1- 34.7---
0221 5:27 am E 2.9 7.0----29.72- 40.3- 34.7---
0221 5:26 am E 1.9 6.0----29.72- 40.3- 34.5---
0221 5:25 amESE 2.9 7.0----29.72- 40.6- 34.7---
0221 5:24 amESE 1.9 6.0----29.72- 40.8- 34.7---
0221 5:23 am E 2.9 7.0----29.72- 41.0- 34.7---
0221 5:22 am E 1.9 8.0----29.72- 41.4- 34.7---
0221 5:21 am E 2.9 7.0----29.72- 41.7- 34.5---
0221 5:20 amESE 2.9 11.1----29.72- 42.8- 35.2---
0221 5:19 amESE 2.9 9.9----29.72- 43.0- 35.2---
0221 5:18 amESE 1.0 4.1----29.72- 43.2- 35.2---
0221 5:17 amESE 1.0 4.1----29.72- 43.3- 35.4---
0221 5:16 am- 0.0 1.9----29.72- 43.5- 35.4---
0221 5:15 am- 0.0 0.0----29.72- 43.7- 35.6---
0221 5:14 am- 0.0 2.9----29.72- 43.7- 35.8 33.48--
0221 5:13 amENE 1.9 5.1----29.72- 43.7- 36.0---
0221 5:12 amENE 1.0 2.9----29.72- 43.9- 36.0---
0221 5:11 am- 0.0 2.9----29.72- 44.4- 36.0---
0221 5:10 amENE 1.0 6.0----29.72- 44.6- 35.6---
0221 5:09 am NE 1.9 7.0----29.72- 44.6- 35.4---
0221 5:08 am NE 2.9 8.0----29.72- 44.8- 35.4---
0221 5:07 amNNE 2.9 8.9----29.72- 44.6- 35.6---
0221 5:06 amNNE 4.1 15.9----29.72- 44.1- 35.4---
0221 5:05 amNNE 2.9 9.9----29.72- 44.1- 36.0---
0221 5:04 amNNE 2.9 8.9----29.72- 43.9- 35.8---
0221 5:03 am NE 2.9 8.0----29.72- 43.9- 36.3---
0221 5:02 am NE 1.9 5.1----29.72- 43.7- 36.1---
0221 5:01 am NE 1.0 5.1----29.72- 43.9- 36.1---
0221 5:00 am E 1.9 6.0----29.72- 43.7- 36.0---
0221 4:59 amENE 1.9 7.0----29.72- 43.5- 35.8---
0221 4:58 amENE 1.9 6.0----29.72- 43.3- 35.8---
0221 4:57 am NE 1.9 6.0----29.72- 43.5- 36.0---
0221 4:56 am NE 1.9 5.1----29.72- 43.3- 35.8---
0221 4:55 amNNE 1.9 6.0----29.72- 43.3- 35.6---
0221 4:54 am NE 1.9 6.0----29.72- 43.5- 35.6---
0221 4:53 am NE 1.9 6.0----29.72- 43.5- 35.4---
0221 4:52 amNNE 1.9 5.1----29.72- 43.5- 35.6---
0221 4:51 am NE 1.9 7.0----29.72- 43.7- 35.4---
0221 4:50 am NE 2.9 8.0----29.72- 43.5- 35.6---
0221 4:49 amNNE 2.9 8.0----29.72- 43.5- 35.6---
0221 4:48 amNNE 1.9 7.0----29.72-0.02 43.5- 35.6---
0221 4:47 amNNE 1.0 4.1----29.71- 43.5- 35.6---
0221 4:46 amNNE 1.9 6.0----29.72- 43.3- 35.8---
0221 4:45 amNNE 1.9 5.1----29.71- 43.5- 35.8---
0221 4:44 am NE 1.9 4.1----29.71- 43.5- 36.0---
0221 4:43 am NE 1.9 6.0----29.71- 43.3- 35.8---
0221 4:42 am NE 1.0 4.1----29.71- 43.5- 36.0---
0221 4:41 am NE 1.9 5.1----29.71- 43.3- 36.0---
0221 4:40 am NE 1.9 5.1----29.71- 43.3- 36.0---
0221 4:39 am NE 1.0 6.0----29.71- 43.3- 36.0---
0221 4:38 am- 0.0 1.9----29.71- 43.3- 36.0---
0221 4:37 am NE 1.0 2.9----29.71- 43.5- 36.1---
0221 4:36 amENE 1.0 5.1----29.71- 43.5- 36.0---
0221 4:35 amENE 1.9 6.0----29.71- 43.5- 36.1---
0221 4:34 am NE 1.9 5.1----29.71- 43.5- 36.1---
0221 4:33 amENE 2.9 8.0----29.71- 43.5- 36.1---
0221 4:32 am NE 1.9 6.0----29.71- 43.7- 36.1---
0221 4:31 am NE 2.9 8.9----29.71- 43.7- 36.0---
0221 4:30 am NE 4.1 12.0----29.71- 43.7- 36.0---
0221 4:29 am NE 4.1 13.0----29.71- 43.7- 36.1---
0221 4:28 am NE 4.1 12.0----29.71- 43.5- 36.0---
0221 4:27 am NE 4.1 11.1----29.71- 43.5- 36.0---
0221 4:26 amNNE 4.1 11.1----29.71- 43.5- 36.0---
0221 4:25 am NE 4.1 12.0----29.71- 43.3- 36.0---
0221 4:24 am NE 4.1 12.0----29.71- 43.3- 35.8---
0221 4:23 am NE 2.9 9.9----29.71- 43.3- 35.8---
0221 4:22 am NE 2.9 8.9----29.71- 43.3- 36.0---
0221 4:21 amNNE 2.9 8.9----29.71- 43.3- 36.0---
0221 4:20 amNNE 2.9 8.0----29.71- 43.3- 36.0---
0221 4:19 am NE 2.9 8.0----29.70- 43.3- 36.0---
0221 4:18 am NE 4.1 9.9----29.71- 43.3- 35.8---
0221 4:17 am NE 2.9 8.9----29.71- 43.3- 35.8---
0221 4:16 am NE 2.9 9.9----29.71- 43.3- 35.6---
0221 4:15 am NE 2.9 9.9----29.71- 43.3- 35.6---
0221 4:14 amNNE 4.1 9.9----29.71- 43.5- 35.8 33.54--
0221 4:13 amNNE 4.1 8.9----29.71- 43.5- 35.8---
0221 4:12 am NE 4.1 9.9----29.71- 43.5- 35.8---
0221 4:11 am NE 4.1 11.1----29.71- 43.5- 35.6---
0221 4:10 am NE 4.1 13.0----29.71- 43.5- 35.6---
0221 4:09 amNNE 4.1 12.0----29.71- 43.5- 35.6---
0221 4:08 amNNE 4.1 12.0----29.71- 43.5- 35.6---
0221 4:07 amNNE 4.1 12.0----29.71- 43.5- 35.6---
0221 4:06 am NE 4.1 12.0----29.70- 43.5- 35.4---
0221 4:05 am NE 4.1 14.0----29.70- 43.5- 35.6---
0221 4:04 amNNE 4.1 13.0----29.70- 43.7- 35.4---
0221 4:03 amNNE 4.1 12.0----29.70- 43.7- 35.4---
0221 4:02 am NE 5.1 12.0----29.71- 43.9- 35.4---
0221 4:01 amNNE 5.1 15.9----29.71- 44.1- 35.6---
0221 4:00 amNNE 5.1 15.0----29.70- 44.4- 35.6---
0221 3:59 amNNE 2.9 13.0----29.70- 44.4- 35.8---
0221 3:58 amNNE 4.1 13.0----29.70- 44.2- 35.8---
0221 3:57 amNNE 6.0 18.1----29.70- 44.1- 36.0---
0221 3:56 amNNE 2.9 13.0----29.71- 44.2- 35.8---
0221 3:55 am NE 5.1 13.0----29.70- 45.0- 36.3---
0221 3:54 am NE 5.1 20.0----29.70- 46.9- 36.7---
0221 3:53 am N 4.1 18.1----29.70- 48.0- 38.3---
0221 3:52 amNNW 7.0 22.0----29.70- 47.8- 37.2---
0221 3:51 amNNW 8.0 25.1----29.70- 48.2- 38.1---
0221 3:50 am NW 8.9 26.0----29.70- 47.8- 37.6---
0221 3:49 am NW 8.9 28.9----29.70- 47.8- 38.1---
0221 3:48 am NW 9.9 34.0----29.71-0.05 47.7- 38.1---
0221 3:47 am NW 8.9 26.0----29.71- 47.7- 38.7---
0221 3:46 am NW 9.9 27.0----29.70- 47.1- 38.3---
0221 3:45 amNNW 6.0 27.0----29.70- 46.8- 38.8---
0221 3:44 am NW 6.0 18.1----29.71- 46.4- 38.3---
0221 3:43 amNNW 4.1 17.1----29.71- 46.0- 38.1---
0221 3:42 am N 2.9 11.1----29.71- 45.9- 37.8---
0221 3:41 am N 1.9 9.9----29.71- 45.9- 37.8---
0221 3:40 am N 1.9 8.0----29.71- 45.7- 37.6---
0221 3:39 amNNE 2.9 8.9----29.71- 45.7- 37.8---
0221 3:38 amNNE 1.9 8.0----29.71- 45.7- 37.6---
0221 3:37 amNNE 1.9 5.1----29.71- 45.9- 37.6---
0221 3:36 amNNE 1.0 5.1----29.71- 46.0- 37.6---
0221 3:35 amNNE 1.9 7.0----29.71- 46.4- 37.6---
0221 3:34 amNNE 2.9 8.0----29.71- 47.3- 38.1---
0221 3:33 amNNW 5.1 18.1----29.71- 47.1- 37.6---
0221 3:32 amNNW 5.1 15.0----29.71- 46.9- 37.2---
0221 3:31 amNNW 5.1 14.0----29.71- 47.1- 37.8---
0221 3:30 amNNW 5.1 14.0----29.71- 46.9- 37.4---
0221 3:29 amNNW 5.1 17.1----29.71- 46.9- 37.4---
0221 3:28 amNNW 5.1 14.0----29.71- 46.9- 37.6---
0221 3:27 amNNW 4.1 14.0----29.71- 46.8- 37.9---
0221 3:26 amNNW 5.1 15.9----29.71- 46.8- 37.8---
0221 3:25 amNNW 5.1 15.9----29.71- 46.8- 37.9---
0221 3:24 amNNW 5.1 15.9----29.71- 46.6- 37.9---
0221 3:23 amNNW 5.1 17.1----29.71- 46.8- 38.3---
0221 3:22 amNNW 5.1 14.0----29.71- 46.6- 38.5---
0221 3:21 amNNW 6.0 18.1----29.71- 46.6- 39.4---
0221 3:20 am N 2.9 14.0----29.71- 46.4- 39.0---
0221 3:19 amNNW 4.1 15.9----29.71- 46.0- 38.8---
0221 3:18 amNNW 2.9 12.0----29.71- 46.0- 39.2---
0221 3:17 am N 1.9 11.1----29.71- 46.0- 39.0---
0221 3:16 am N 2.9 11.1----29.71- 46.0- 39.0---
0221 3:15 amNNW 4.1 11.1----29.72- 45.7- 38.7---
0221 3:14 am N 2.9 11.1----29.72- 45.5- 38.8 33.61--
0221 3:13 am N 1.9 8.0----29.72- 45.3- 38.3---
0221 3:12 am N 4.1 13.0----29.72- 45.0- 38.1---
0221 3:11 am N 2.9 9.9----29.72- 44.8- 37.9---
0221 3:10 amNNE 2.9 9.9----29.72- 44.8- 37.9---
0221 3:09 amNNE 2.9 9.9----29.72- 44.8- 37.9---
0221 3:08 amNNE 4.1 11.1----29.72- 44.6- 37.9---
0221 3:07 amNNE 2.9 9.9----29.72- 44.6- 38.1---
0221 3:06 amNNE 4.1 11.1----29.72- 44.4- 38.3---
0221 3:05 amNNE 2.9 8.0----29.72- 44.4- 38.3---
0221 3:04 amNNE 2.9 9.9----29.72- 44.2- 38.5---
0221 3:03 am NE 2.9 8.0----29.72- 44.2- 38.5---
0221 3:02 am NE 1.9 7.0----29.72- 44.1- 38.7---
0221 3:01 am NE 1.9 7.0----29.72- 44.1- 38.5---
0221 3:00 am NE 2.9 8.0----29.72- 44.1- 38.5---
0221 2:59 am NE 2.9 7.0----29.72- 43.9- 38.5---
0221 2:58 am NE 2.9 9.9----29.72- 43.9- 38.5---
0221 2:57 amNNE 2.9 8.0----29.72- 43.9- 38.5---
0221 2:56 am NE 2.9 7.0----29.72- 43.9- 38.7---
0221 2:55 am NE 2.9 8.0----29.72- 43.9- 38.7---
0221 2:54 am NE 2.9 8.0----29.72- 43.9- 38.7---
0221 2:53 amENE 2.9 8.9----29.72- 43.7- 38.7---
0221 2:52 amENE 1.9 6.0----29.72- 43.7- 38.7---
0221 2:51 amENE 2.9 8.0----29.72- 43.7- 38.7---
0221 2:50 amENE 2.9 7.0----29.72- 43.7- 38.8---
0221 2:49 am NE 2.9 8.0----29.72- 43.5- 38.5---
0221 2:48 am NE 2.9 8.9----29.72-0.05 43.5- 38.8---
0221 2:47 am NE 2.9 8.9----29.72- 43.0- 38.1---
0221 2:46 am NE 2.9 8.9----29.73- 42.8- 38.7---
0221 2:45 am NE 2.9 8.9----29.73- 41.7- 37.2---
0221 2:44 am NE 1.9 6.0----29.73- 41.5- 37.0---
0221 2:43 am NE 1.9 6.0----29.73- 41.4- 37.0---
0221 2:42 amENE 1.0 2.9----29.73- 41.2- 36.9---
0221 2:41 am- 0.0 0.0----29.73- 41.2- 36.7---
0221 2:40 amENE 1.0 4.1----29.73- 41.2- 36.5---
0221 2:39 amENE 1.9 5.1----29.73- 40.8- 36.1---
0221 2:38 amENE 1.9 6.0----29.73- 40.1- 35.6---
0221 2:37 amESE 1.9 5.1----29.73- 40.1- 35.6---
0221 2:36 amESE 2.9 8.0----29.73- 39.9- 35.4---
0221 2:35 amESE 2.9 8.0----29.73- 39.7- 34.9---
0221 2:34 amESE 4.1 9.9----29.73- 39.9- 35.4---
0221 2:33 amESE 5.1 12.0----29.73- 40.3- 35.4---
0221 2:32 am SE 5.1 12.0----29.72- 40.8- 36.0---
0221 2:31 amESE 4.1 11.1----29.73- 41.2- 36.0---
0221 2:30 amESE 2.9 8.0----29.73- 41.2- 35.6---
0221 2:29 amESE 2.9 8.0----29.73- 41.2- 35.6---
0221 2:28 amESE 4.1 13.0----29.73- 41.5- 35.2---
0221 2:27 am E 4.1 12.0----29.73- 43.9- 38.3---
0221 2:26 amSSW 1.0 8.9----29.73- 45.7- 38.8---
0221 2:25 amWSW 1.0 7.0----29.73- 46.8- 40.6---
0221 2:24 amWNW 4.1 15.9----29.73- 46.4- 40.5---
0221 2:23 am W 2.9 9.9----29.73- 45.9- 40.1---
0221 2:22 amWNW 1.9 7.0----29.73- 45.5- 39.6---
0221 2:21 am NW 1.0 6.0----29.73- 45.3- 39.6---
0221 2:20 am N 2.9 12.0----29.73- 45.0- 39.0---
0221 2:19 amNNE 1.9 7.0----29.73- 45.1- 39.4---
0221 2:18 amNNE 1.9 8.0----29.73- 45.0- 39.0---
0221 2:17 am N 1.0 5.1----29.73- 45.0- 39.2---
0221 2:16 am- 0.0 4.1----29.73- 45.3- 39.4---
0221 2:15 am NE 1.0 2.9----29.73- 45.3- 39.4---
0221 2:14 amNNE 1.0 2.9----29.73- 45.7- 39.7 33.55--
0221 2:13 amNNE 1.0 4.1----29.73- 45.9- 39.9---
0221 2:12 amNNE 1.9 7.0----29.73- 46.2- 40.6---
0221 2:11 am N 2.9 9.9----29.73- 45.9- 40.6---
0221 2:10 amNNW 4.1 12.0----29.73- 44.8- 40.3---
0221 2:09 amNNW 2.9 11.1----29.73- 43.2- 38.3---
0221 2:08 amNNW 1.9 9.9----29.73- 42.1- 37.6---
0221 2:07 am- 0.0 0.0----29.73- 42.1- 37.0---
0221 2:06 am- 0.0 4.1----29.73- 41.7- 36.9---
0221 2:05 am S 1.0 5.1----29.74- 41.9- 36.9---
0221 2:04 amSSE 1.0 4.1----29.73- 42.3- 37.4---
0221 2:03 am- 0.0 0.0----29.74- 41.9- 37.2---
0221 2:02 am- 0.0 0.0----29.74- 41.9- 37.2---
0221 2:01 am- 0.0 0.0----29.74- 41.9- 37.0---
0221 2:00 am- 0.0 0.0----29.74- 41.9- 37.0---
0221 1:59 am- 0.0 1.0----29.74- 41.7- 37.0---
0221 1:58 am- 0.0 0.0----29.74- 41.7- 36.9---
0221 1:57 am- 0.0 0.0----29.74- 41.7- 36.7---
0221 1:56 amENE 1.9 5.1----29.74- 41.5- 36.5---
0221 1:55 amENE 1.9 6.0----29.74- 41.4- 36.3---
0221 1:54 amENE 1.9 6.0----29.74- 41.4- 36.3---
0221 1:53 am E 1.9 5.1----29.74- 41.4- 36.1---
0221 1:52 am E 1.9 6.0----29.74- 41.4- 36.1---
0221 1:51 am E 2.9 8.0----29.74- 41.4- 36.3---
0221 1:50 am E 4.1 9.9----29.74- 41.5- 36.7---
0221 1:49 am E 2.9 8.0----29.74- 41.7- 36.9---
0221 1:48 am E 1.9 5.1----29.74-0.05 41.7- 36.9---
0221 1:47 amENE 1.9 5.1----29.74- 41.7- 36.9---
0221 1:46 am E 1.9 5.1----29.74- 41.9- 37.0---
0221 1:45 am E 1.9 8.0----29.74- 41.7- 37.0---
0221 1:44 am E 2.9 8.0----29.74- 41.9- 37.0---
0221 1:43 am NE 1.9 6.0----29.74- 41.9- 37.0---
0221 1:42 am NE 1.9 7.0----29.74- 41.9- 37.0---
0221 1:41 am E 2.9 7.0----29.74- 41.9- 37.0---
0221 1:40 am E 1.9 5.1----29.74- 41.9- 36.9---
0221 1:39 am E 1.0 2.9----29.74- 41.9- 36.9---
0221 1:38 am E 1.0 5.1----29.74- 41.9- 37.0---
0221 1:37 am E 1.9 4.1----29.74- 41.7- 36.9---
0221 1:36 am E 1.0 2.9----29.74- 41.7- 36.9---
0221 1:35 am- 0.0 2.9----29.74- 41.7- 36.9---
0221 1:34 am- 0.0 1.0----29.74- 41.5- 36.9---
0221 1:33 am- 0.0 0.0----29.74- 41.5- 36.7---
0221 1:32 am E 1.0 5.1----29.74- 41.5- 36.7---
0221 1:31 am E 1.9 5.1----29.74- 41.4- 36.5---
0221 1:30 amNNE 1.9 8.0----29.74- 41.2- 36.5---
0221 1:29 am E 1.0 7.0----29.74- 41.4- 36.5---
0221 1:28 am E 1.9 7.0----29.74- 41.4- 36.5---
0221 1:27 am E 1.9 7.0----29.74- 41.2- 36.5---
0221 1:26 amESE 2.9 8.0----29.74- 41.0- 36.3---
0221 1:25 amESE 1.9 7.0----29.74- 40.8- 36.0---
0221 1:24 amESE 4.1 12.0----29.74- 40.6- 36.0---
0221 1:23 amESE 5.1 12.0----29.74- 40.3- 35.6---
0221 1:22 amESE 4.1 12.0----29.74- 40.1- 35.6---
0221 1:21 am E 2.9 8.0----29.75- 39.9- 35.2---
0221 1:20 amESE 4.1 9.9----29.75- 40.1- 35.4---
0221 1:19 amESE 2.9 8.9----29.75- 40.1- 35.2---
0221 1:18 am SE 2.9 8.0----29.75- 40.1- 35.4---
0221 1:17 amSSE 2.9 8.9----29.75- 39.9- 35.1---
0221 1:16 amSSE 2.9 8.0----29.75- 39.9- 35.2---
0221 1:15 am SE 1.9 7.0----29.75- 39.9- 35.1---
0221 1:14 am SE 2.9 8.0----29.75- 39.9- 35.1 33.51--
0221 1:13 am SE 1.9 7.0----29.75- 39.9- 35.1---
0221 1:12 am SE 2.9 8.0----29.75- 39.9- 35.1---
0221 1:11 amSSE 4.1 9.9----29.75- 40.1- 35.2---
0221 1:10 amSSE 2.9 8.9----29.75- 40.1- 35.2---
0221 1:09 am SE 4.1 11.1----29.75- 39.7- 34.9---
0221 1:08 am S 4.1 9.9----29.75- 39.9- 34.9---
0221 1:07 amSSW 4.1 12.0----29.75- 40.3- 35.2---
0221 1:06 am- 0.0 1.0----29.75- 40.3- 35.1---
0221 1:05 am SE 1.9 6.0----29.75- 40.3- 35.1---
0221 1:04 amESE 1.9 7.0----29.75- 40.5- 35.2---
0221 1:03 am E 1.9 6.0----29.75- 40.5- 35.2---
0221 1:02 am E 1.9 6.0----29.75- 40.5- 35.2---
0221 1:01 am E 2.9 7.0----29.75- 40.6- 35.2---
0221 1:00 am E 2.9 8.9----29.75- 40.6- 35.2---
022112:59 am E 1.9 7.0----29.75- 40.6- 35.1---
022112:58 am E 2.9 7.0----29.75- 40.6- 34.9---
022112:57 amESE 2.9 8.9----29.75- 40.5- 34.9---
022112:56 amESE 4.1 11.1----29.75- 40.6- 34.7---
022112:55 amESE 4.1 8.9----29.75- 40.8- 34.9---
022112:54 amESE 4.1 9.9----29.75- 41.0- 34.9---
022112:53 am SE 4.1 8.9----29.75- 41.4- 35.1---
022112:52 am SE 4.1 9.9----29.75- 41.7- 35.2---
022112:51 amESE 4.1 11.1----29.75- 42.1- 35.8---
022112:50 amESE 4.1 9.9----29.75- 42.3- 35.2---
022112:49 amESE 4.1 11.1----29.75- 43.0- 36.0---
022112:48 amESE 4.1 9.9----29.75-0.04 43.0- 36.1---
022112:47 amESE 2.9 8.9----29.75- 43.5- 36.0---
022112:46 amESE 2.9 8.9----29.75- 44.1- 36.7---
022112:45 am E 2.9 9.9----29.75- 44.6- 36.9---
022112:44 am SE 1.9 6.0----29.76- 45.7- 37.6---
022112:43 amESE 1.0 5.1----29.76- 46.2- 38.1---
022112:42 am E 1.9 5.1----29.76- 46.9- 38.5---
022112:41 amENE 1.9 6.0----29.76- 47.3- 38.3---
022112:40 amENE 1.9 7.0----29.76- 47.8- 38.8---
022112:39 amNNE 4.1 12.0----29.76- 48.0- 38.8---
022112:38 amNNW 4.1 12.0----29.76- 47.5- 38.7---
022112:37 amNNW 2.9 8.9----29.76- 47.1- 37.9---
022112:36 am N 2.9 9.9----29.76- 47.3- 37.9---
022112:35 amNNE 5.1 15.0----29.76- 47.8- 38.1---
022112:34 amNNE 5.1 15.9----29.76- 48.9- 38.8---
022112:33 amNNW 6.0 17.1----29.76- 48.7- 38.1---
022112:32 amNNW 7.0 21.0----29.76- 48.7- 38.1---
022112:31 amNNW 6.0 22.0----29.76- 48.7- 38.1---
022112:30 amNNW 5.1 20.0----29.76- 48.7- 37.9---
022112:29 amWNW 4.1 13.0----29.76- 48.7- 38.1---
022112:28 am NW 6.0 18.1----29.76- 48.7- 38.5---
022112:27 am NW 6.0 22.0----29.76- 48.9- 39.2---
022112:26 amNNW 5.1 15.9----29.76- 48.7- 38.7---
022112:25 amNNW 4.1 11.1----29.76- 48.9- 38.7---
022112:24 am NW 5.1 13.0----29.76- 48.9- 38.8---
022112:23 am NW 5.1 14.0----29.76- 48.9- 38.8---
022112:22 am NW 5.1 15.9----29.76- 48.9- 38.8---
022112:21 am NW 7.0 20.0----29.76- 48.9- 38.8---
022112:20 am NW 7.0 20.0----29.76- 48.7- 38.3---
022112:19 amNNW 6.0 20.0----29.76- 48.6- 38.3---
022112:18 amNNW 5.1 14.0----29.76- 48.6- 38.1---
022112:17 am NW 6.0 22.0----29.76- 48.6- 38.8---
022112:16 amWNW 6.0 19.0----29.76- 48.4- 38.7---
022112:15 amWNW 5.1 15.9----29.76- 48.6- 39.9---
022112:14 amWNW 5.1 17.1----29.77- 48.4- 39.9 33.45--
022112:13 amNNW 2.9 13.0----29.77- 48.2- 39.6---
022112:12 am N 4.1 14.0----29.77- 48.0- 39.4---
022112:11 amNNW 4.1 12.0----29.77- 48.0- 39.4---
022112:10 am N 1.9 9.9----29.77- 47.8- 39.2---
022112:09 am N 4.1 12.0----29.77- 47.7- 39.0---
022112:08 am N 2.9 13.0----29.77- 47.8- 39.2---
022112:07 am N 2.9 8.9----29.77- 47.7- 39.2---
022112:06 amNNW 4.1 9.9----29.77- 47.5- 38.8---
022112:05 am N 1.9 7.0----29.77- 47.5- 38.7---
022112:04 amNNE 1.9 7.0----29.77- 47.7- 38.7---
022112:03 amNNE 1.9 7.0----29.77- 48.2- 39.4---
022112:02 am N 2.9 9.9----29.77- 48.2- 39.2---
022112:01 am N 4.1 11.1----29.77- 48.2- 39.2---
022112:00 am N 2.9 8.9----29.77- 48.0- 39.0---
022011:57 pm N 4.1 11.1----29.77- 48.4- 39.4---
022011:56 pmNNE 2.9 8.9----29.77- 48.6- 38.8---
022011:55 pmNNW 4.1 12.0----29.77- 48.6- 38.7---
022011:54 pmNNW 6.0 19.0----29.77- 48.6- 39.7---
022011:53 pmNNW 5.1 14.0----29.77- 48.6- 39.2---
022011:52 pmNNW 5.1 15.0----29.77- 48.6- 39.0---
022011:51 pmNNW 6.0 15.9----29.77- 48.7- 39.4---
022011:50 pm N 4.1 13.0----29.77- 48.7- 39.0---
022011:49 pm N 5.1 17.1----29.77- 48.6- 38.5---
022011:48 pmNNW 6.0 21.0----29.77-0.03 48.7- 38.8---
022011:47 pmNNW 6.0 18.1----29.77- 48.6- 38.7---
022011:46 pmNNW 7.0 20.0----29.77- 48.6- 39.2---
022011:45 pmNNW 5.1 19.0----29.77- 48.4- 38.7---
022011:44 pm NW 5.1 15.9----29.77- 48.2- 38.8---
022011:43 pmNNW 6.0 15.9----29.77- 48.0- 38.8---
022011:42 pm N 4.1 13.0----29.77- 48.0- 38.8---
022011:41 pmNNW 6.0 15.0----29.77- 47.8- 38.8---
022011:40 pm N 4.1 15.0----29.77- 47.8- 38.7---
022011:39 pm N 4.1 12.0----29.77- 47.7- 38.5---
022011:38 pm N 5.1 14.0----29.77- 47.7- 38.5---
022011:37 pmNNE 2.9 12.0----29.77- 48.0- 38.5---
022011:36 pm N 4.1 13.0----29.78- 48.4- 39.2---
022011:35 pmNNE 4.1 11.1----29.78- 48.9- 39.2---
022011:34 pm N 7.0 22.0----29.78- 49.3- 39.4---
022011:33 pmNNW 7.0 22.0----29.78- 48.9- 38.3---
022011:32 pm NW 8.0 21.0----29.78- 49.1- 38.8---
022011:31 pm NW 8.0 24.1----29.78- 49.1- 39.0---
022011:30 pm NW 7.0 22.9----29.78- 48.9- 38.3---
022011:29 pm NW 8.9 25.1----29.78- 49.1- 38.7---
022011:28 pmNNW 6.0 21.0----29.78- 49.1- 39.0---
022011:27 pmNNW 8.0 22.9----29.78- 49.3- 39.2---
022011:26 pm NW 8.0 28.0----29.78- 49.3- 39.6---
022011:25 pm NW 7.0 21.0----29.78- 49.3- 39.0---
022011:24 pm NW 7.0 21.0----29.78- 49.5- 39.6---
022011:23 pm NW 7.0 20.0----29.78- 49.1- 39.2---
022011:22 pm NW 7.0 21.0----29.78- 48.9- 38.8---
022011:21 pmNNW 6.0 19.0----29.78- 48.9- 38.1---
022011:20 pmNNW 6.0 20.0----29.78- 48.9- 38.1---
022011:19 pm NW 8.9 25.1----29.78- 49.1- 38.3---
022011:18 pm NW 8.9 26.0----29.78- 49.1- 38.3---
022011:17 pm NW 8.0 22.0----29.78- 49.1- 38.3---
022011:16 pm NW 7.0 26.0----29.78- 49.3- 39.0---
022011:15 pm NW 8.0 24.1----29.78- 49.3- 38.7---
022011:14 pm NW 8.0 28.0----29.78- 49.1- 38.3 33.38--
022011:13 pm NW 8.9 27.0----29.78- 49.1- 37.9---
022011:12 pm NW 8.9 26.0----29.78- 49.1- 38.1---
022011:11 pm NW 11.1 28.9----29.78- 49.3- 38.8---
022011:10 pm NW 9.9 28.9----29.78- 49.3- 38.7---
022011:09 pm NW 8.0 22.0----29.78- 49.1- 37.8---
022011:08 pm NW 9.9 28.9----29.78- 49.3- 38.1---
022011:07 pm NW 9.9 28.0----29.78- 49.5- 39.0---
022011:06 pm NW 8.9 29.9----29.78- 49.5- 38.5---
022011:05 pmNNW 8.0 28.0----29.78- 49.5- 38.1---
022011:04 pmNNW 9.9 32.1----29.78- 49.5- 39.7---
022011:03 pmNNW 8.9 29.9----29.78- 49.3- 38.7---
022011:02 pmNNW 8.0 25.1----29.78- 49.5- 39.0---
022011:01 pm NW 8.9 29.9----29.78- 49.3- 38.5---
022011:00 pm NW 9.9 32.1----29.79- 49.3- 38.8---
022010:59 pm NW 9.9 32.1----29.79- 49.3- 38.3---
022010:58 pmNNW 8.9 29.9----29.79- 49.3- 38.7---
022010:57 pm NW 9.9 27.0----29.79- 49.3- 38.8---
022010:56 pm NW 11.1 32.1----29.79- 49.6- 39.9---
022010:55 pm NW 8.9 28.9----29.79- 49.6- 40.1---
022010:54 pm NW 8.0 22.9----29.79- 49.5- 39.7---
022010:53 pm NW 7.0 20.0----29.79- 49.6- 39.7---
022010:52 pm NW 8.0 25.1----29.79- 49.5- 39.2---
022010:51 pm NW 8.9 24.1----29.79- 49.3- 38.8---
022010:50 pmNNW 8.0 24.1----29.79- 49.3- 38.7---
022010:49 pmNNW 7.0 22.9----29.79- 49.5- 39.0---
022010:48 pm NW 8.0 25.1----29.79-0.03 49.5- 39.0---
022010:47 pm NW 8.0 25.1----29.79- 49.5- 38.8---
022010:46 pm NW 8.0 22.9----29.79- 49.5- 38.5---
022010:45 pm NW 9.9 26.0----29.79- 49.5- 38.5---
022010:44 pm NW 11.1 34.0----29.79- 49.3- 38.8---
022010:43 pm NW 8.9 26.0----29.79- 49.3- 38.3---
022010:42 pmNNW 8.0 24.1----29.79- 49.5- 38.8---
022010:41 pmNNW 8.0 25.1----29.79- 49.5- 38.3---
022010:40 pmNNW 8.9 27.0----29.79- 49.5- 38.8---
022010:39 pm NW 9.9 31.1----29.79- 49.3- 37.8---
022010:38 pm NW 11.1 34.0----29.79- 49.5- 38.5---
022010:37 pm NW 12.0 32.1----29.79- 49.5- 37.9---
022010:36 pm NW 13.0 35.0----29.79- 49.6- 38.8---
022010:35 pm NW 13.0 36.9----29.79- 49.6- 38.5---
022010:34 pm NW 12.0 41.0----29.79- 49.8- 39.6---
022010:33 pm NW 11.1 34.0----29.79- 49.5- 38.7---
022010:32 pm NW 13.0 39.0----29.79- 49.6- 39.6---
022010:31 pm NW 8.9 28.0----29.79- 49.6- 39.4---
022010:30 pmNNW 8.9 31.1----29.79- 49.6- 39.6---
022010:29 pmNNW 8.9 28.0----29.79- 49.6- 39.9---
022010:28 pmNNW 7.0 25.1----29.79- 49.8- 39.6---
022010:27 pm NW 8.0 25.1----29.79- 49.8- 40.5---
022010:26 pm NW 9.9 28.9----29.79- 49.5- 39.2---
022010:25 pm NW 9.9 28.9----29.79- 49.3- 38.5---
022010:24 pm NW 11.1 28.9----29.79- 49.5- 39.0---
022010:23 pmNNW 8.0 27.0----29.79- 49.5- 39.0---
022010:22 pmNNW 8.9 29.9----29.79- 49.5- 39.2---
022010:21 pm NW 8.9 26.0----29.79- 49.6- 39.4---
022010:20 pm NW 8.9 28.0----29.79- 49.6- 39.6---
022010:19 pm NW 7.0 22.9----29.79- 49.3- 38.5---
022010:18 pm NW 8.0 28.0----29.79- 49.5- 38.7---
022010:17 pm NW 8.9 25.1----29.79- 49.5- 38.8---
022010:16 pm NW 8.9 27.0----29.79- 49.5- 38.5---
022010:15 pm NW 11.1 32.1----29.79- 49.5- 39.0---
022010:14 pm NW 9.9 29.9----29.79- 49.6- 39.0 33.35--
022010:13 pmWNW 12.0 33.0----29.79- 49.6- 39.0---
022010:12 pm NW 9.9 28.9----29.79- 49.5- 38.7---
022010:11 pm NW 9.9 29.9----29.79- 49.8- 39.9---
022010:10 pm NW 8.9 27.0----29.80- 49.5- 38.8---
022010:09 pm NW 8.9 27.0----29.79- 49.5- 38.3---
022010:08 pm NW 8.9 26.0----29.80- 49.5- 39.0---
022010:07 pm NW 9.9 27.0----29.80- 49.6- 38.7---
022010:06 pm NW 12.0 33.0----29.80- 49.8- 39.6---
022010:05 pmWNW 12.0 32.1----29.80- 49.5- 38.5---
022010:04 pmWNW 13.0 35.0----29.80- 49.6- 39.2---
022010:03 pmWNW 13.0 34.0----29.80- 49.8- 39.4---
022010:02 pmWNW 13.0 36.9----29.80- 49.8- 40.1---
022010:01 pmWNW 11.1 36.9----29.80- 49.6- 39.0---
022010:00 pmWNW 12.0 32.1----29.80- 50.0- 40.1---
0220 9:59 pm NW 8.9 26.0----29.80- 49.8- 39.4---
0220 9:58 pm NW 8.9 26.0----29.80- 49.8- 39.6---
0220 9:57 pm NW 8.9 28.0----29.80- 49.6- 39.2---
0220 9:56 pm NW 9.9 28.9----29.80- 49.8- 40.1---
0220 9:55 pm NW 8.0 26.0----29.80- 49.8- 39.7---
0220 9:54 pm NW 8.9 28.0----29.80- 49.6- 39.6---
0220 9:53 pm NW 8.0 26.0----29.80- 49.8- 40.5---
0220 9:52 pmNNW 8.0 22.9----29.80- 49.5- 39.6---
0220 9:51 pm NW 8.0 22.0----29.80- 49.5- 39.7---
0220 9:50 pmNNW 5.1 15.9----29.80- 49.3- 38.8---
0220 9:49 pm NW 6.0 20.0----29.80- 49.1- 39.4---
0220 9:48 pmNNW 6.0 17.1----29.80-0.01 49.1- 39.4---
0220 9:47 pmNNW 6.0 17.1----29.80- 49.3- 39.6---
0220 9:46 pm N 6.0 15.9----29.80- 49.3- 39.4---
0220 9:45 pmNNW 5.1 15.9----29.80- 49.3- 39.2---
0220 9:44 pmNNW 7.0 21.0----29.80- 49.3- 39.4---
0220 9:43 pmNNW 7.0 21.0----29.80- 49.3- 39.0---
0220 9:42 pm N 7.0 20.0----29.80- 49.3- 38.8---
0220 9:41 pmNNW 7.0 24.1----29.80- 49.1- 38.5---
0220 9:40 pm NW 7.0 27.0----29.80- 49.1- 39.4---
0220 9:39 pm N 6.0 19.0----29.80- 49.6- 39.9---
0220 9:38 pm N 5.1 22.0----29.80- 49.8- 40.1---
0220 9:37 pm NW 6.0 21.0----29.80- 49.8- 39.4---
0220 9:36 pmNNW 6.0 22.9----29.80- 49.6- 38.5---
0220 9:35 pmNNW 8.0 26.0----29.80- 49.5- 38.8---
0220 9:34 pmNNW 7.0 22.9----29.80- 49.6- 39.4---
0220 9:33 pm N 8.0 25.1----29.80- 49.6- 39.2---
0220 9:32 pmNNW 5.1 17.1----29.80- 49.6- 39.4---
0220 9:31 pm NW 8.0 22.0----29.80- 49.6- 39.4---
0220 9:30 pmNNW 7.0 21.0----29.80- 49.6- 39.2---
0220 9:29 pmNNW 5.1 18.1----29.80- 49.6- 38.8---
0220 9:28 pmNNW 6.0 17.1----29.80- 49.6- 39.2---
0220 9:27 pmNNW 6.0 19.0----29.80- 49.5- 38.5---
0220 9:26 pmNNW 6.0 19.0----29.80- 49.6- 39.2---
0220 9:25 pmNNW 8.9 28.9----29.80- 49.8- 39.9---
0220 9:24 pmNNW 6.0 20.0----29.80- 49.6- 39.2---
0220 9:23 pm NW 6.0 17.1----29.80- 49.6- 39.4---
0220 9:22 pm N 6.0 21.0----29.80- 49.6- 39.7---
0220 9:21 pm NW 7.0 22.0----29.80- 49.5- 38.5---
0220 9:20 pm NW 8.0 24.1----29.80- 49.6- 39.2---
0220 9:19 pm NW 8.9 25.1----29.80- 49.6- 39.6---
0220 9:18 pm NW 7.0 20.0----29.80- 49.6- 39.6---
0220 9:17 pm NW 5.1 17.1----29.80- 49.6- 39.4---
0220 9:16 pmNNW 6.0 21.0----29.80- 49.6- 39.4---
0220 9:15 pmNNW 7.0 22.0----29.80- 49.5- 38.3---
0220 9:14 pm NW 7.0 18.1----29.80- 49.6- 39.0 33.01--
0220 9:13 pmNNW 7.0 22.0----29.80- 49.6- 38.8---
0220 9:12 pmNNW 7.0 20.0----29.80- 49.8- 39.6---
0220 9:11 pmNNW 6.0 21.0----29.80- 49.6- 38.7---
0220 9:10 pm NW 8.0 25.1----29.80- 49.6- 38.8---
0220 9:09 pm NW 8.0 25.1----29.80- 49.6- 39.0---
0220 9:08 pmNNW 6.0 20.0----29.80- 49.6- 38.7---
0220 9:07 pmNNW 6.0 19.0----29.80- 49.8- 39.0---
0220 9:06 pm NW 7.0 19.0----29.80- 49.6- 39.7---
0220 9:05 pm NW 7.0 19.0----29.80- 49.6- 39.2---
0220 9:04 pmNNW 7.0 21.0----29.80- 49.8- 39.9---
0220 9:03 pmNNW 5.1 15.0----29.80- 49.6- 39.4---
0220 9:02 pmNNW 5.1 19.0----29.80- 49.6- 39.6---
0220 9:01 pmNNW 5.1 15.9----29.80- 49.6- 39.0---
0220 9:00 pmNNW 6.0 19.0----29.80- 49.6- 39.0---
0220 8:59 pmNNW 8.0 22.0----29.80- 49.6- 39.2---
0220 8:58 pmNNW 7.0 22.0----29.80- 49.6- 39.4---
0220 8:57 pmNNW 6.0 20.0----29.80- 49.6- 38.8---
0220 8:56 pmNNW 6.0 21.0----29.80- 49.8- 39.4---
0220 8:55 pmNNW 8.0 24.1----29.80- 49.8- 39.6---
0220 8:54 pmNNW 6.0 20.0----29.80- 49.8- 39.4---
0220 8:53 pm NW 8.0 22.9----29.80- 50.0- 40.3---
0220 8:52 pm NW 6.0 19.0----29.80- 49.8- 39.4---
0220 8:51 pmNNW 7.0 21.0----29.80- 49.8- 39.0---
0220 8:50 pmNNW 7.0 24.1----29.80- 49.6- 38.7---
0220 8:49 pmNNW 8.0 22.0----29.80- 49.6- 38.7---
0220 8:48 pmNNW 8.9 27.0----29.80+0.00 49.8- 39.2---
0220 8:47 pmNNW 6.0 21.0----29.80- 49.8- 39.4---
0220 8:46 pm NW 8.0 22.9----29.80- 49.8- 39.0---
0220 8:45 pm NW 8.0 24.1----29.80- 49.8- 39.0---
0220 8:44 pm NW 7.0 22.0----29.80- 49.8- 39.0---
0220 8:43 pmNNW 6.0 22.9----29.80- 49.8- 38.7---
0220 8:42 pmNNW 8.0 25.1----29.80- 49.8- 38.7---
0220 8:41 pm NW 8.9 27.0----29.80- 49.8- 38.8---
0220 8:40 pm NW 9.9 28.0----29.80- 49.8- 38.8---
0220 8:39 pm NW 9.9 27.0----29.80- 49.8- 38.8---
0220 8:38 pm NW 11.1 34.0----29.80- 50.0- 39.2---
0220 8:37 pm NW 8.9 28.9----29.80- 49.8- 39.0---
0220 8:36 pm NW 11.1 29.9----29.80- 49.8- 38.7---
0220 8:35 pmNNW 8.9 24.1----29.80- 50.0- 39.7---
0220 8:34 pmNNW 8.0 26.0----29.80- 50.0- 39.7---
0220 8:33 pmNNW 8.0 28.0----29.80- 50.0- 39.7---
0220 8:32 pm NW 8.0 22.0----29.80- 49.8- 39.0---
0220 8:31 pm NW 8.9 28.0----29.80- 50.0- 39.0---
0220 8:30 pm NW 11.1 31.1----29.80- 50.2- 40.3---
0220 8:29 pm NW 8.9 26.0----29.80- 50.0- 39.6---
0220 8:28 pm NW 8.9 24.1----29.80- 50.0- 39.4---
0220 8:27 pm NW 8.9 27.0----29.80- 50.0- 38.8---
0220 8:26 pm NW 9.9 28.0----29.80- 50.0- 39.0---
0220 8:25 pmNNW 8.9 29.9----29.80- 50.2- 39.6---
0220 8:24 pmNNW 8.0 28.9----29.80- 50.0- 39.4---
0220 8:23 pmNNW 7.0 21.0----29.80- 50.0- 39.2---
0220 8:22 pmNNW 8.0 22.9----29.80- 50.0- 39.2---
0220 8:21 pm NW 8.9 26.0----29.80- 49.8- 38.7---
0220 8:20 pm NW 9.9 27.0----29.80- 50.0- 39.9---
0220 8:19 pm NW 8.9 33.0----29.80- 49.8- 38.7---
0220 8:18 pmNNW 8.9 31.1----29.80- 50.2- 39.7---
0220 8:17 pm NW 8.9 28.0----29.80- 50.2- 40.1---
0220 8:16 pmNNW 8.0 25.1----29.80- 50.2- 39.6---
0220 8:15 pm NW 8.9 29.9----29.81- 50.2- 40.1---
0220 8:14 pmNNW 8.9 27.0----29.80- 50.2- 39.6 32.82--
0220 8:13 pm NW 9.9 28.0----29.81- 50.2- 39.6---
0220 8:12 pmNNW 8.0 27.0----29.81- 50.2- 39.6---
0220 8:11 pmNNW 8.9 27.0----29.81- 50.4- 40.1---
0220 8:10 pmNNW 8.0 27.0----29.81- 50.2- 39.2---
0220 8:09 pmNNW 9.9 31.1----29.81- 50.0- 39.2---
0220 8:08 pmNNW 11.1 33.0----29.81- 50.2- 39.4---
0220 8:07 pmNNW 11.1 35.0----29.81- 50.2- 39.2---
0220 8:06 pmNNW 8.9 28.0----29.81- 50.4- 40.1---
0220 8:05 pmNNW 8.9 29.9----29.81- 50.2- 39.2---
0220 8:04 pmNNW 9.9 29.9----29.81- 50.2- 39.0---
0220 8:03 pmNNW 12.0 34.0----29.81- 50.0- 38.5---
0220 8:02 pm NW 12.0 31.1----29.81- 50.0- 38.8---
0220 8:01 pmNNW 11.1 31.1----29.81- 50.2- 39.2---
0220 8:00 pmNNW 9.9 32.1----29.81- 50.2- 39.4---
0220 7:59 pmNNW 9.9 31.1----29.81- 50.2- 39.0---
0220 7:58 pmNNW 9.9 34.0----29.81- 50.4- 39.7---
0220 7:57 pmNNW 11.1 39.0----29.81- 50.4- 39.7---
0220 7:56 pmNNW 8.9 28.9----29.81- 50.2- 39.6---
0220 7:55 pmNNW 9.9 32.1----29.81- 50.2- 39.0---
0220 7:54 pmNNW 13.0 38.1----29.81- 50.4- 39.7---
0220 7:53 pmNNW 8.9 28.0----29.81- 50.2- 39.2---
0220 7:52 pmNNW 11.1 34.0----29.81- 50.2- 39.0---
0220 7:51 pmNNW 12.0 35.9----29.81- 50.5- 40.1---
0220 7:50 pmNNW 11.1 34.0----29.81- 50.5- 39.6---

Ocean Conditions at MLSC1 as of
(8:00 pm PST on 02/21/2019)
0400 GMT on 02/22/2019:

These oceanographic data are displayed in rounded times.

     

Click on the graph icon in the table below to see a time series plot of the last five days of that observation.

 Depth (DEPTH): 0.0 ft
5-day plot - Ocean TemperatureOcean Temperature (OTMP):56.44 °F
5-day plot - SalinitySalinity (SAL):32.39 psu
5-day plot - Oxygen Concentration (O2PPM)Oxygen Concentration (O2PPM): 8.75 ppm
Previous observations
5-day plot - Ocean Temperature 5-day plot - Conductivity 5-day plot - Salinity 5-day plot - Oxygen Concentration (O2PCT) 5-day plot - Oxygen Concentration (O2PPM) 5-day plot - Chlorophyll 5-day plot - Turbidity 5-day plot - pH 5-day plot - Eh
MM   DD    TIME
(PST)
DEPTH
ft
       OTMP
°F
   COND
mS/cm
  SAL
psu
  O2%
%
   O2PPM
ppm
CLCON
ug/l
TURB
FTU
PH EH
mv
02217:00 pm 0.056.14-32.85- 8.22----
02216:00 pm 0.056.19-33.36- 8.55----
02215:00 pm 0.056.30-33.34- 8.43----
02214:00 pm 0.054.90-33.37- 6.96----
02213:00 pm 0.054.63-33.55- 6.67----
02212:00 pm 0.053.04-33.68- 5.21----
02211:00 pm 0.056.25-33.47- 7.01----
022112:00 pm 0.056.25-33.46- 7.75----
022111:00 am 0.056.12-33.44- 7.45----
022110:00 am 0.055.89-33.26- 7.50----
02219:00 am 0.055.98-33.47- 7.87----
02218:00 am 0.055.90-33.43- 7.82----
02217:00 am 0.055.67-33.48- 7.92----
02216:00 am 0.055.80-33.47- 7.94----
02215:00 am 0.055.72-33.48- 8.10----
02214:00 am 0.054.61-33.54- 6.65----
02213:00 am 0.053.96-33.61- 6.32----
02212:00 am 0.054.46-33.55- 6.71----
02211:00 am 0.055.04-33.51- 6.92----
022112:00 am 0.055.83-33.45- 7.47----
022011:00 pm 0.055.98-33.38- 7.75----
022010:00 pm 0.055.90-33.35- 8.38----
02209:00 pm 0.055.78-33.01- 8.00----
02208:00 pm 0.055.90-32.82- 8.57----

Solar Radiation Conditions at MLSC1 as of
(8:00 pm PST on 02/21/2019)
0400 GMT on 02/22/2019:
     

Click on the graph icon in the table below to see a time series plot of the last five days of that observation.

5-day plot - Short Wave Radiation 1Short Wave Radiation 1 (SRAD1): -2.0watts/meter2
Previous observations
5-day plot - Short Wave Radiation 1 5-day plot - Short Wave Radiation 2 5-day plot - Long Wave Radiation
MM   DD    TIME
(PST)
  SRAD1
w/m2
   SWRAD
w/m2
    LWRAD
w/m2
02217:00 pm -2.0--
02216:00 pm -1.0--
02215:00 pm 28.0--
02214:00 pm 439.0--
02213:00 pm 854.0--
02212:00 pm1105.0--
02211:00 pm1363.0--
022112:00 pm1422.0--
022111:00 am1391.0--
022110:00 am1063.0--
02219:00 am1041.0--
02218:00 am 616.0--
02217:00 am 103.0--
02216:00 am -1.0--
02215:00 am -1.0--
02214:00 am -2.0--
02213:00 am -1.0--
02212:00 am -2.0--
02211:00 am -2.0--
022112:00 am -2.0--
022011:00 pm -2.0--
022010:00 pm -2.0--
02209:00 pm -2.0--
02208:00 pm -2.0--

Rainfall at MLSC1 as of
(8:00 pm PST on 02/21/2019)
0400 GMT on 02/22/2019:
     

Click on the graph icon in the table below to see a time series plot of the last five days of that observation.

* indicates interpolated rain values

Previous observations
  5-day plot - Hourly Rain Accmulation   -------- Ten-minute Rain Rates (Centered at hour + minutes) ---------
MM   DD    TIME
(PST)
  Hourly Accum
inches
  0
inches/hour
  10
inches/hour
  20
inches/hour
  30
inches/hour
  40
inches/hour
  50
inches/hour
 
02228:00 pm0.00- - - - - - 
02227:00 pm0.00- - - - - - 
02226:00 pm0.00- - - - - - 
02225:00 pm0.00- - - - - - 
02224:00 pm0.00- - - - - - 
02213:00 pm0.00- - - - - - 
02212:00 pm0.00- - - - - - 
02211:00 pm0.00- - - - - - 
022112:00 pm0.00- - - - - - 
022111:00 am0.00- - - - - - 
022110:00 am0.00- - - - - - 
02219:00 am0.00- - - - - - 
02218:00 am0.00- - - - - - 
02217:00 am0.00- - - - - - 
02216:00 am0.00- - - - - - 
02215:00 am0.00- - - - - - 
02214:00 am0.00- - - - - - 
02213:00 am0.00- - - - - - 
02212:00 am0.00- - - - - - 
02211:00 am0.00- - - - - - 
022112:00 am0.00- - - - - - 
022111:00 pm0.01- - - - - - 
022110:00 pm0.01- - - - - - 
02219:00 pm0.01- - - - - - 
02218:00 pm0.01- - - - - - 

Description of Measurements

Links which are specific to this station are listed below:

Real Time Data in tabular form for the last forty-five days.

Historical Data & Climatic Summaries for quality controlled data for the current month, previous months, and previous years.